Time,TemperatureF,DewpointF,PressureIn,WindDirection,WindDirectionDegrees,WindSpeedMPH,WindSpeedGustMPH,Humidity,HourlyPrecipIn,Conditions,Clouds,dailyrainin,SoftwareType,DateUTC
2013-03-18 00:00:00,62.8,55.1,30.02,SSW,213,0.0,0.0,76,0.00,,---,0.00,VWS V14.00,2013-03-18 04:00:00,
2013-03-18 00:05:00,62.8,55.1,30.02,SSW,213,0.0,0.0,76,0.00,,---,0.00,VWS V14.00,2013-03-18 04:05:00,
2013-03-18 00:10:00,62.8,54.8,30.02,SSW,213,0.0,0.0,75,0.00,,---,0.00,VWS V14.00,2013-03-18 04:10:00,
2013-03-18 00:15:00,62.7,54.7,30.02,SSW,213,0.0,0.0,75,0.00,,---,0.00,VWS V14.00,2013-03-18 04:15:00,
2013-03-18 00:20:00,62.7,55.0,30.01,SSW,213,0.0,0.0,76,0.00,,---,0.00,VWS V14.00,2013-03-18 04:20:00,
2013-03-18 00:25:00,62.6,54.9,30.02,SSW,213,0.0,0.0,76,0.00,,---,0.00,VWS V14.00,2013-03-18 04:25:00,
2013-03-18 00:30:00,62.5,55.2,30.02,SSW,213,0.0,0.0,77,0.00,,---,0.00,VWS V14.00,2013-03-18 04:30:00,
2013-03-18 00:35:00,62.4,55.1,30.02,SSW,213,0.0,0.0,77,0.00,,---,0.00,VWS V14.00,2013-03-18 04:35:00,
2013-03-18 00:40:00,62.3,55.0,30.02,SSW,213,0.0,0.0,77,0.00,,---,0.00,VWS V14.00,2013-03-18 04:40:00,
2013-03-18 00:45:00,62.3,55.4,30.02,SSW,213,0.0,0.0,78,0.00,,---,0.00,VWS V14.00,2013-03-18 04:45:00,
2013-03-18 00:50:00,62.2,55.6,30.01,NW,315,0.0,0.0,79,0.00,,---,0.00,VWS V14.00,2013-03-18 04:50:00,
2013-03-18 00:55:00,62.2,55.6,30.01,West,263,0.0,0.0,79,0.00,,---,0.00,VWS V14.00,2013-03-18 04:55:00,
2013-03-18 01:00:00,62.3,55.7,30.01,NNW,327,0.0,0.0,79,0.00,,---,0.00,VWS V14.00,2013-03-18 05:00:00,
2013-03-18 01:05:00,62.3,56.1,30.01,NNW,327,0.0,0.0,80,0.00,,---,0.00,VWS V14.00,2013-03-18 05:05:00,
2013-03-18 01:10:00,62.3,56.1,30.01,NNW,327,0.0,0.0,80,0.00,,---,0.00,VWS V14.00,2013-03-18 05:10:00,
2013-03-18 01:15:00,62.3,56.1,30.01,West,279,0.0,2.0,80,0.00,,---,0.00,VWS V14.00,2013-03-18 05:15:00,
2013-03-18 01:20:00,62.3,56.1,30.01,West,279,0.0,0.0,80,0.00,,---,0.00,VWS V14.00,2013-03-18 05:20:00,
2013-03-18 01:25:00,62.4,56.2,30.01,West,279,0.0,0.0,80,0.00,,---,0.00,VWS V14.00,2013-03-18 05:25:00,
2013-03-18 01:30:00,62.3,56.4,30.01,West,279,0.0,0.0,81,0.00,,---,0.00,VWS V14.00,2013-03-18 05:30:00,
2013-03-18 01:35:00,62.4,56.5,30.01,West,279,0.0,0.0,81,0.00,,---,0.00,VWS V14.00,2013-03-18 05:35:00,
2013-03-18 01:40:00,62.3,56.4,30.00,West,279,0.0,0.0,81,0.00,,---,0.00,VWS V14.00,2013-03-18 05:40:00,
2013-03-18 01:45:00,62.3,56.4,30.00,West,279,0.0,0.0,81,0.00,,---,0.00,VWS V14.00,2013-03-18 05:45:00,
2013-03-18 01:50:00,62.3,56.4,30.00,West,279,0.0,0.0,81,0.00,,---,0.00,VWS V14.00,2013-03-18 05:50:00,
2013-03-18 01:55:00,62.3,56.4,30.00,West,279,0.0,0.0,81,0.00,,---,0.00,VWS V14.00,2013-03-18 05:55:00,
2013-03-18 02:00:00,62.2,56.3,30.00,West,279,0.0,0.0,81,0.00,,---,0.00,VWS V14.00,2013-03-18 06:00:00,
2013-03-18 02:05:00,62.2,56.6,30.00,WNW,285,0.0,0.0,82,0.00,,---,0.00,VWS V14.00,2013-03-18 06:05:00,
2013-03-18 02:10:00,62.1,56.5,30.00,WNW,285,0.0,0.0,82,0.00,,---,0.00,VWS V14.00,2013-03-18 06:10:00,
2013-03-18 02:15:00,62.1,56.5,30.00,WNW,285,0.0,1.0,82,0.00,,---,0.00,VWS V14.00,2013-03-18 06:15:00,
2013-03-18 02:20:00,62.1,56.5,30.00,WNW,287,0.0,0.0,82,0.00,,---,0.00,VWS V14.00,2013-03-18 06:20:00,
2013-03-18 02:25:00,62.1,56.9,29.99,WNW,287,0.0,0.0,83,0.00,,---,0.00,VWS V14.00,2013-03-18 06:25:00,
2013-03-18 02:30:00,62.0,56.8,29.99,WNW,287,0.0,1.0,83,0.00,,---,0.00,VWS V14.00,2013-03-18 06:30:00,
2013-03-18 02:35:00,62.1,56.9,30.00,WNW,287,0.0,0.0,83,0.00,,---,0.00,VWS V14.00,2013-03-18 06:35:00,
2013-03-18 02:40:00,62.1,57.2,30.00,WNW,287,0.0,0.0,84,0.00,,---,0.00,VWS V14.00,2013-03-18 06:40:00,
2013-03-18 02:45:00,62.1,57.2,30.00,WNW,287,0.0,1.0,84,0.00,,---,0.00,VWS V14.00,2013-03-18 06:45:00,
2013-03-18 02:50:00,62.1,57.2,30.00,WNW,287,0.0,1.0,84,0.00,,---,0.00,VWS V14.00,2013-03-18 06:50:00,
2013-03-18 02:55:00,62.2,57.3,30.00,WNW,287,0.0,0.0,84,0.00,,---,0.00,VWS V14.00,2013-03-18 06:55:00,
2013-03-18 03:00:00,62.2,57.3,30.00,WNW,287,0.0,0.0,84,0.00,,---,0.00,VWS V14.00,2013-03-18 07:00:00,
2013-03-18 03:05:00,62.2,57.3,30.00,WNW,287,0.0,0.0,84,0.00,,---,0.00,VWS V14.00,2013-03-18 07:05:00,
2013-03-18 03:10:00,62.2,57.3,29.99,WNW,287,0.0,0.0,84,0.00,,---,0.00,VWS V14.00,2013-03-18 07:10:00,
2013-03-18 03:15:00,62.2,57.3,30.00,WNW,287,0.0,0.0,84,0.00,,---,0.00,VWS V14.00,2013-03-18 07:15:00,
2013-03-18 03:20:00,62.2,57.6,30.00,WNW,287,0.0,0.0,85,0.00,,---,0.00,VWS V14.00,2013-03-18 07:20:00,
2013-03-18 03:25:00,62.2,57.6,30.00,WNW,287,0.0,0.0,85,0.00,,---,0.00,VWS V14.00,2013-03-18 07:25:00,
2013-03-18 03:30:00,62.1,57.5,30.00,WNW,287,0.0,0.0,85,0.00,,---,0.00,VWS V14.00,2013-03-18 07:30:00,
2013-03-18 03:35:00,62.1,57.2,30.00,WNW,287,0.0,0.0,84,0.00,,---,0.00,VWS V14.00,2013-03-18 07:35:00,
2013-03-18 03:40:00,62.0,57.1,30.00,WNW,287,0.0,0.0,84,0.00,,---,0.00,VWS V14.00,2013-03-18 07:40:00,
2013-03-18 03:45:00,62.0,57.1,30.00,WNW,287,0.0,0.0,84,0.00,,---,0.00,VWS V14.00,2013-03-18 07:45:00,
2013-03-18 03:50:00,61.9,57.3,30.00,WNW,287,0.0,0.0,85,0.00,,---,0.00,VWS V14.00,2013-03-18 07:50:00,
2013-03-18 03:55:00,61.8,57.2,30.00,WNW,287,0.0,0.0,85,0.00,,---,0.00,VWS V14.00,2013-03-18 07:55:00,
2013-03-18 04:00:00,61.8,57.6,30.00,WNW,287,0.0,0.0,86,0.00,,---,0.00,VWS V14.00,2013-03-18 08:00:00,
2013-03-18 04:05:00,61.8,57.6,30.00,WNW,287,0.0,0.0,86,0.00,,---,0.00,VWS V14.00,2013-03-18 08:05:00,
2013-03-18 04:10:00,61.7,57.8,30.00,WNW,287,0.0,0.0,87,0.01,,---,0.01,VWS V14.00,2013-03-18 08:10:00,
2013-03-18 04:15:00,61.7,58.1,30.01,WNW,287,0.0,0.0,88,0.02,,---,0.02,VWS V14.00,2013-03-18 08:15:00,
2013-03-18 04:20:00,61.6,58.0,30.01,WNW,287,0.0,0.0,88,0.03,,---,0.03,VWS V14.00,2013-03-18 08:20:00,
2013-03-18 04:25:00,61.4,57.8,30.01,WNW,287,0.0,0.0,88,0.03,,---,0.03,VWS V14.00,2013-03-18 08:25:00,
2013-03-18 04:30:00,61.3,58.0,30.01,WNW,287,0.0,0.0,89,0.03,,---,0.03,VWS V14.00,2013-03-18 08:30:00,
2013-03-18 04:35:00,61.2,57.9,30.01,WNW,287,0.0,0.0,89,0.03,,---,0.03,VWS V14.00,2013-03-18 08:35:00,
2013-03-18 04:40:00,61.0,58.0,30.01,WNW,287,0.0,0.0,90,0.04,,---,0.04,VWS V14.00,2013-03-18 08:40:00,
2013-03-18 04:45:00,60.9,58.0,30.00,WNW,287,0.0,0.0,90,0.04,,---,0.04,VWS V14.00,2013-03-18 08:45:00,
2013-03-18 04:50:00,60.7,57.8,30.00,WNW,287,0.0,0.0,90,0.04,,---,0.04,VWS V14.00,2013-03-18 08:50:00,
2013-03-18 04:55:00,60.6,57.7,30.00,WNW,287,0.0,0.0,90,0.04,,---,0.04,VWS V14.00,2013-03-18 08:55:00,
2013-03-18 05:00:00,60.4,57.5,30.00,WNW,287,0.0,0.0,90,0.04,,---,0.04,VWS V14.00,2013-03-18 09:00:00,
2013-03-18 05:05:00,60.3,57.4,30.00,WNW,287,0.0,0.0,90,0.04,,---,0.04,VWS V14.00,2013-03-18 09:05:00,
2013-03-18 05:10:00,60.3,57.4,30.00,WNW,287,0.0,0.0,90,0.03,,---,0.04,VWS V14.00,2013-03-18 09:10:00,
2013-03-18 05:15:00,60.2,57.3,30.01,WNW,287,0.0,0.0,90,0.02,,---,0.04,VWS V14.00,2013-03-18 09:15:00,
2013-03-18 05:20:00,60.0,57.4,30.01,WNW,287,0.0,0.0,91,0.01,,---,0.04,VWS V14.00,2013-03-18 09:20:00,
2013-03-18 05:25:00,60.0,57.4,30.01,WNW,287,0.0,0.0,91,0.01,,---,0.04,VWS V14.00,2013-03-18 09:25:00,
2013-03-18 05:30:00,59.8,56.9,30.01,WNW,287,0.0,0.0,90,0.01,,---,0.04,VWS V14.00,2013-03-18 09:30:00,
2013-03-18 05:35:00,59.7,56.8,30.01,WNW,287,0.0,0.0,90,0.01,,---,0.04,VWS V14.00,2013-03-18 09:35:00,
2013-03-18 05:40:00,59.6,56.7,30.02,WNW,287,0.0,0.0,90,0.00,,---,0.04,VWS V14.00,2013-03-18 09:40:00,
2013-03-18 05:45:00,59.6,57.0,30.02,WNW,287,0.0,0.0,91,0.00,,---,0.04,VWS V14.00,2013-03-18 09:45:00,
2013-03-18 05:50:00,59.6,57.0,30.02,WNW,287,0.0,0.0,91,0.00,,---,0.04,VWS V14.00,2013-03-18 09:50:00,
2013-03-18 05:55:00,59.6,57.3,30.02,WNW,287,0.0,0.0,92,0.00,,---,0.04,VWS V14.00,2013-03-18 09:55:00,
2013-03-18 06:00:00,59.6,57.3,30.03,WNW,287,0.0,0.0,92,0.00,,---,0.04,VWS V14.00,2013-03-18 10:00:00,
2013-03-18 06:05:00,59.6,57.3,30.03,WNW,287,0.0,0.0,92,0.00,,---,0.04,VWS V14.00,2013-03-18 10:05:00,
2013-03-18 06:10:00,59.5,57.2,30.03,WNW,287,0.0,0.0,92,0.00,,---,0.04,VWS V14.00,2013-03-18 10:10:00,
2013-03-18 06:15:00,59.5,57.5,30.03,WNW,287,0.0,0.0,93,0.00,,---,0.04,VWS V14.00,2013-03-18 10:15:00,
2013-03-18 06:20:00,59.5,57.5,30.03,WNW,287,0.0,0.0,93,0.00,,---,0.04,VWS V14.00,2013-03-18 10:20:00,
2013-03-18 06:25:00,59.4,57.4,30.03,WNW,287,0.0,0.0,93,0.00,,---,0.04,VWS V14.00,2013-03-18 10:25:00,
2013-03-18 06:30:00,59.3,57.3,30.03,WNW,287,0.0,0.0,93,0.00,,---,0.04,VWS V14.00,2013-03-18 10:30:00,
2013-03-18 06:35:00,59.3,57.3,30.03,WNW,287,0.0,0.0,93,0.00,,---,0.04,VWS V14.00,2013-03-18 10:35:00,
2013-03-18 06:40:00,59.2,57.2,30.03,WNW,287,0.0,0.0,93,0.00,,---,0.04,VWS V14.00,2013-03-18 10:40:00,
2013-03-18 06:45:00,59.1,57.1,30.03,WNW,287,0.0,0.0,93,0.00,,---,0.04,VWS V14.00,2013-03-18 10:45:00,
2013-03-18 06:50:00,59.0,57.0,30.03,WNW,287,0.0,0.0,93,0.00,,---,0.04,VWS V14.00,2013-03-18 10:50:00,
2013-03-18 06:55:00,58.9,56.9,30.03,WNW,287,0.0,0.0,93,0.00,,---,0.04,VWS V14.00,2013-03-18 10:55:00,
2013-03-18 07:00:00,58.8,56.8,30.03,WNW,287,0.0,0.0,93,0.00,,---,0.04,VWS V14.00,2013-03-18 11:00:00,
2013-03-18 07:05:00,58.7,56.7,30.04,WNW,287,0.0,0.0,93,0.00,,---,0.04,VWS V14.00,2013-03-18 11:05:00,
2013-03-18 07:10:00,58.5,56.5,30.04,WNW,287,0.0,0.0,93,0.00,,---,0.04,VWS V14.00,2013-03-18 11:10:00,
2013-03-18 07:15:00,58.4,56.4,30.03,WNW,287,0.0,0.0,93,0.00,,---,0.04,VWS V14.00,2013-03-18 11:15:00,
2013-03-18 07:20:00,58.3,56.3,30.04,WNW,287,0.0,0.0,93,0.00,,---,0.04,VWS V14.00,2013-03-18 11:20:00,
2013-03-18 07:25:00,58.1,56.1,30.04,WNW,287,0.0,0.0,93,0.00,,---,0.04,VWS V14.00,2013-03-18 11:25:00,
2013-03-18 07:30:00,58.0,56.0,30.04,WNW,287,0.0,0.0,93,0.00,,---,0.04,VWS V14.00,2013-03-18 11:30:00,
2013-03-18 07:35:00,57.9,55.9,30.04,WNW,287,0.0,0.0,93,0.00,,---,0.04,VWS V14.00,2013-03-18 11:35:00,
2013-03-18 07:40:00,57.8,55.8,30.04,WNW,287,0.0,0.0,93,0.00,,---,0.04,VWS V14.00,2013-03-18 11:40:00,
2013-03-18 07:45:00,57.8,55.8,30.04,WNW,287,0.0,0.0,93,0.00,,---,0.04,VWS V14.00,2013-03-18 11:45:00,
2013-03-18 07:50:00,57.7,55.7,30.04,WNW,287,0.0,0.0,93,0.00,,---,0.04,VWS V14.00,2013-03-18 11:50:00,
2013-03-18 07:55:00,57.7,55.7,30.04,WNW,287,0.0,0.0,93,0.00,,---,0.04,VWS V14.00,2013-03-18 11:55:00,
2013-03-18 08:00:00,57.8,55.8,30.04,WNW,287,0.0,0.0,93,0.00,,---,0.04,VWS V14.00,2013-03-18 12:00:00,
2013-03-18 08:05:00,57.8,55.8,30.04,WNW,287,0.0,0.0,93,0.00,,---,0.04,VWS V14.00,2013-03-18 12:05:00,
2013-03-18 08:10:00,57.8,56.1,30.05,WNW,287,0.0,0.0,94,0.00,,---,0.04,VWS V14.00,2013-03-18 12:10:00,
2013-03-18 08:15:00,57.8,56.1,30.05,WNW,287,0.0,0.0,94,0.00,,---,0.04,VWS V14.00,2013-03-18 12:15:00,
2013-03-18 08:20:00,57.9,56.2,30.05,WNW,287,0.0,0.0,94,0.00,,---,0.04,VWS V14.00,2013-03-18 12:20:00,
2013-03-18 08:25:00,58.0,56.3,30.05,WNW,287,0.0,0.0,94,0.00,,---,0.04,VWS V14.00,2013-03-18 12:25:00,
2013-03-18 08:30:00,58.1,56.4,30.05,WNW,287,0.0,0.0,94,0.00,,---,0.04,VWS V14.00,2013-03-18 12:30:00,
2013-03-18 08:35:00,58.3,56.9,30.06,WNW,287,0.0,0.0,95,0.00,,---,0.04,VWS V14.00,2013-03-18 12:35:00,
2013-03-18 08:40:00,58.4,57.0,30.06,WNW,287,0.0,0.0,95,0.00,,---,0.04,VWS V14.00,2013-03-18 12:40:00,
2013-03-18 08:45:00,58.5,57.1,30.06,WNW,287,0.0,0.0,95,0.00,,---,0.04,VWS V14.00,2013-03-18 12:45:00,
2013-03-18 08:50:00,58.6,57.2,30.06,WNW,287,0.0,0.0,95,0.00,,---,0.04,VWS V14.00,2013-03-18 12:50:00,
2013-03-18 08:55:00,58.7,57.3,30.06,WNW,287,0.0,0.0,95,0.00,,---,0.04,VWS V14.00,2013-03-18 12:55:00,
2013-03-18 09:00:00,58.8,57.4,30.06,WNW,287,0.0,0.0,95,0.00,,---,0.04,VWS V14.00,2013-03-18 13:00:00,
2013-03-18 09:05:00,58.9,57.5,30.06,WNW,287,0.0,0.0,95,0.00,,---,0.04,VWS V14.00,2013-03-18 13:05:00,
2013-03-18 09:10:00,59.0,57.6,30.06,WNW,287,0.0,0.0,95,0.00,,---,0.04,VWS V14.00,2013-03-18 13:10:00,
2013-03-18 09:15:00,59.1,58.0,30.06,WNW,287,0.0,0.0,96,0.00,,---,0.04,VWS V14.00,2013-03-18 13:15:00,
2013-03-18 09:20:00,59.1,58.0,30.06,WNW,287,0.0,0.0,96,0.00,,---,0.04,VWS V14.00,2013-03-18 13:20:00,
2013-03-18 09:25:00,59.2,58.1,30.06,WNW,287,0.0,0.0,96,0.00,,---,0.04,VWS V14.00,2013-03-18 13:25:00,
2013-03-18 09:30:00,59.4,58.3,30.06,WNW,287,0.0,0.0,96,0.00,,---,0.04,VWS V14.00,2013-03-18 13:30:00,
2013-03-18 09:35:00,59.5,58.4,30.06,WNW,287,0.0,0.0,96,0.00,,---,0.04,VWS V14.00,2013-03-18 13:35:00,
2013-03-18 09:40:00,59.7,58.6,30.06,WNW,287,0.0,0.0,96,0.00,,---,0.04,VWS V14.00,2013-03-18 13:40:00,
2013-03-18 09:45:00,59.8,58.7,30.07,WNW,287,0.0,0.0,96,0.00,,---,0.04,VWS V14.00,2013-03-18 13:45:00,
2013-03-18 09:50:00,60.0,58.9,30.06,WNW,287,0.0,0.0,96,0.00,,---,0.04,VWS V14.00,2013-03-18 13:50:00,
2013-03-18 09:55:00,60.0,58.9,30.07,WNW,287,0.0,0.0,96,0.00,,---,0.04,VWS V14.00,2013-03-18 13:55:00,
2013-03-18 10:00:00,60.1,59.0,30.07,WNW,287,0.0,0.0,96,0.00,,---,0.04,VWS V14.00,2013-03-18 14:00:00,
2013-03-18 10:05:00,60.2,59.1,30.07,WNW,287,0.0,0.0,96,0.00,,---,0.04,VWS V14.00,2013-03-18 14:05:00,
2013-03-18 10:10:00,60.3,59.2,30.07,WNW,287,0.0,1.0,96,0.00,,---,0.04,VWS V14.00,2013-03-18 14:10:00,
2013-03-18 10:15:00,60.2,58.8,30.07,East,79,0.0,1.0,95,0.00,,---,0.04,VWS V14.00,2013-03-18 14:15:00,
2013-03-18 10:20:00,60.2,58.8,30.07,East,79,0.0,1.0,95,0.00,,---,0.04,VWS V14.00,2013-03-18 14:20:00,
2013-03-18 10:25:00,60.2,58.8,30.07,East,79,0.0,0.0,95,0.00,,---,0.04,VWS V14.00,2013-03-18 14:25:00,
2013-03-18 10:30:00,60.3,58.9,30.07,East,79,0.0,1.0,95,0.00,,---,0.04,VWS V14.00,2013-03-18 14:30:00,
2013-03-18 10:35:00,60.4,59.0,30.07,East,79,1.0,1.0,95,0.00,,---,0.04,VWS V14.00,2013-03-18 14:35:00,
2013-03-18 10:40:00,60.4,58.7,30.07,East,79,0.0,1.0,94,0.00,,---,0.04,VWS V14.00,2013-03-18 14:40:00,
2013-03-18 10:45:00,60.5,58.8,30.07,East,79,0.0,0.0,94,0.00,,---,0.04,VWS V14.00,2013-03-18 14:45:00,
2013-03-18 10:50:00,60.6,58.9,30.07,East,95,0.0,1.0,94,0.00,,---,0.04,VWS V14.00,2013-03-18 14:50:00,
2013-03-18 10:55:00,60.7,58.7,30.07,East,95,0.0,0.0,93,0.00,,---,0.04,VWS V14.00,2013-03-18 14:55:00,
2013-03-18 11:00:00,60.9,58.9,30.07,SE,134,0.0,1.0,93,0.00,,---,0.04,VWS V14.00,2013-03-18 15:00:00,
2013-03-18 11:05:00,61.1,59.1,30.06,ESE,105,0.0,0.0,93,0.00,,---,0.04,VWS V14.00,2013-03-18 15:05:00,
2013-03-18 11:10:00,61.3,59.0,30.06,East,100,0.0,2.0,92,0.00,,---,0.04,VWS V14.00,2013-03-18 15:10:00,
2013-03-18 11:15:00,61.4,58.8,30.06,East,101,0.0,1.0,91,0.00,,---,0.04,VWS V14.00,2013-03-18 15:15:00,
2013-03-18 11:20:00,61.4,58.8,30.06,ESE,117,0.0,0.0,91,0.00,,---,0.04,VWS V14.00,2013-03-18 15:20:00,
2013-03-18 11:25:00,61.7,59.0,30.06,ESE,117,0.0,0.0,91,0.00,,---,0.04,VWS V14.00,2013-03-18 15:25:00,
2013-03-18 11:30:00,61.7,58.7,30.06,ESE,113,0.0,1.0,90,0.00,,---,0.04,VWS V14.00,2013-03-18 15:30:00,
2013-03-18 11:35:00,61.9,58.9,30.06,ESE,114,1.0,1.0,90,0.00,,---,0.04,VWS V14.00,2013-03-18 15:35:00,
2013-03-18 11:40:00,62.0,58.7,30.06,ESE,105,1.0,2.0,89,0.00,,---,0.04,VWS V14.00,2013-03-18 15:40:00,
2013-03-18 11:45:00,62.1,58.8,30.06,ESE,110,0.0,2.0,89,0.00,,---,0.04,VWS V14.00,2013-03-18 15:45:00,
2013-03-18 11:50:00,62.3,59.0,30.05,East,92,1.0,1.0,89,0.00,,---,0.04,VWS V14.00,2013-03-18 15:50:00,
2013-03-18 11:55:00,62.5,58.9,30.05,East,95,2.0,5.0,88,0.00,,---,0.04,VWS V14.00,2013-03-18 15:55:00,
2013-03-18 12:00:00,62.7,58.8,30.05,ESE,114,0.0,0.0,87,0.00,,---,0.04,VWS V14.00,2013-03-18 16:00:00,
2013-03-18 12:05:00,62.8,58.9,30.05,East,99,1.0,1.0,87,0.00,,---,0.04,VWS V14.00,2013-03-18 16:05:00,
2013-03-18 12:10:00,62.9,58.7,30.04,East,98,0.0,0.0,86,0.00,,---,0.04,VWS V14.00,2013-03-18 16:10:00,
2013-03-18 12:15:00,63.1,58.8,30.04,East,86,1.0,3.0,86,0.00,,---,0.04,VWS V14.00,2013-03-18 16:15:00,
2013-03-18 12:20:00,63.4,59.2,30.04,SSE,153,2.0,2.0,86,0.00,,---,0.04,VWS V14.00,2013-03-18 16:20:00,
2013-03-18 12:25:00,63.5,58.6,30.04,ESE,107,1.0,3.0,84,0.00,,---,0.04,VWS V14.00,2013-03-18 16:25:00,
2013-03-18 12:30:00,63.4,58.5,30.04,ESE,116,0.0,0.0,84,0.00,,---,0.04,VWS V14.00,2013-03-18 16:30:00,
2013-03-18 12:35:00,63.3,58.4,30.04,ESE,123,1.0,1.0,84,0.00,,---,0.04,VWS V14.00,2013-03-18 16:35:00,
2013-03-18 12:40:00,63.1,58.2,30.04,ESE,118,0.0,1.0,84,0.00,,---,0.04,VWS V14.00,2013-03-18 16:40:00,
2013-03-18 12:45:00,62.8,57.9,30.04,ESE,118,0.0,1.0,84,0.00,,---,0.04,VWS V14.00,2013-03-18 16:45:00,
2013-03-18 12:50:00,62.6,58.0,30.03,ESE,115,1.0,4.0,85,0.00,,---,0.04,VWS V14.00,2013-03-18 16:50:00,
2013-03-18 12:55:00,62.2,57.6,30.03,ESE,119,4.0,4.0,85,0.00,,---,0.04,VWS V14.00,2013-03-18 16:55:00,
2013-03-18 13:00:00,62.0,57.5,30.03,East,98,0.0,0.0,85,0.00,,---,0.04,VWS V14.00,2013-03-18 17:00:00,
2013-03-18 13:05:00,61.9,57.7,30.03,East,99,1.0,1.0,86,0.00,,---,0.04,VWS V14.00,2013-03-18 17:05:00,
2013-03-18 13:10:00,61.8,57.6,30.03,East,99,1.0,1.0,86,0.00,,---,0.04,VWS V14.00,2013-03-18 17:10:00,
2013-03-18 13:15:00,61.8,57.6,30.02,SE,141,2.0,2.0,86,0.00,,---,0.04,VWS V14.00,2013-03-18 17:15:00,
2013-03-18 13:20:00,61.8,57.9,30.02,SE,140,0.0,1.0,87,0.00,,---,0.04,VWS V14.00,2013-03-18 17:20:00,
2013-03-18 13:25:00,62.0,58.1,30.02,East,98,0.0,4.0,87,0.00,,---,0.04,VWS V14.00,2013-03-18 17:25:00,
2013-03-18 13:30:00,62.3,58.4,30.01,East,95,1.0,2.0,87,0.00,,---,0.04,VWS V14.00,2013-03-18 17:30:00,
2013-03-18 13:35:00,62.7,58.8,30.01,East,84,0.0,0.0,87,0.00,,---,0.04,VWS V14.00,2013-03-18 17:35:00,
2013-03-18 13:40:00,63.1,58.8,30.01,ESE,104,2.0,2.0,86,0.00,,---,0.04,VWS V14.00,2013-03-18 17:40:00,
2013-03-18 13:45:00,63.2,58.6,30.01,ESE,116,2.0,5.0,85,0.00,,---,0.04,VWS V14.00,2013-03-18 17:45:00,
2013-03-18 13:50:00,63.3,58.4,30.00,ESE,111,0.0,0.0,84,0.00,,---,0.04,VWS V14.00,2013-03-18 17:50:00,
2013-03-18 13:55:00,63.4,58.2,30.00,SE,144,2.0,2.0,83,0.00,,---,0.04,VWS V14.00,2013-03-18 17:55:00,
2013-03-18 14:00:00,63.3,58.1,30.00,SE,142,0.0,0.0,83,0.00,,---,0.04,VWS V14.00,2013-03-18 18:00:00,
2013-03-18 14:05:00,63.3,58.1,30.00,SE,143,1.0,1.0,83,0.00,,---,0.04,VWS V14.00,2013-03-18 18:05:00,
2013-03-18 14:10:00,63.2,58.0,30.00,SE,132,2.0,2.0,83,0.00,,---,0.04,VWS V14.00,2013-03-18 18:10:00,
2013-03-18 14:15:00,63.1,57.9,30.00,SE,128,0.0,1.0,83,0.00,,---,0.04,VWS V14.00,2013-03-18 18:15:00,
2013-03-18 14:20:00,62.9,58.0,29.99,East,98,1.0,5.0,84,0.00,,---,0.04,VWS V14.00,2013-03-18 18:20:00,
2013-03-18 14:25:00,63.1,58.5,29.99,ESE,122,0.0,1.0,85,0.00,,---,0.04,VWS V14.00,2013-03-18 18:25:00,
2013-03-18 14:30:00,63.3,58.7,29.99,East,101,0.0,1.0,85,0.00,,---,0.04,VWS V14.00,2013-03-18 18:30:00,
2013-03-18 14:35:00,63.3,58.1,29.98,SE,137,1.0,1.0,83,0.00,,---,0.04,VWS V14.00,2013-03-18 18:35:00,
2013-03-18 14:40:00,63.4,58.2,29.98,East,97,1.0,2.0,83,0.00,,---,0.04,VWS V14.00,2013-03-18 18:40:00,
2013-03-18 14:45:00,63.2,58.0,29.98,ESE,104,2.0,2.0,83,0.00,,---,0.04,VWS V14.00,2013-03-18 18:45:00,
2013-03-18 14:50:00,62.9,57.7,29.97,ESE,123,0.0,1.0,83,0.00,,---,0.04,VWS V14.00,2013-03-18 18:50:00,
2013-03-18 14:54:00,62.7,57.5,29.97,ESE,103,1.0,1.0,83,0.00,,---,0.04,VWS V14.00,2013-03-18 18:54:00,
2013-03-18 14:59:00,62.3,57.1,29.97,East,96,0.0,1.0,83,0.00,,---,0.04,VWS V14.00,2013-03-18 18:59:00,
2013-03-18 15:04:00,62.0,57.1,29.97,East,81,1.0,1.0,84,0.00,,---,0.04,VWS V14.00,2013-03-18 19:04:00,
2013-03-18 15:09:00,61.7,57.2,29.97,East,81,0.0,0.0,85,0.00,,---,0.04,VWS V14.00,2013-03-18 19:09:00,
2013-03-18 15:14:00,61.4,56.9,29.97,East,83,1.0,1.0,85,0.00,,---,0.04,VWS V14.00,2013-03-18 19:14:00,
2013-03-18 15:19:00,61.2,57.0,29.97,East,83,0.0,0.0,86,0.00,,---,0.04,VWS V14.00,2013-03-18 19:19:00,
2013-03-18 15:24:00,61.1,56.9,29.97,SSE,148,0.0,1.0,86,0.00,,---,0.04,VWS V14.00,2013-03-18 19:24:00,
2013-03-18 15:29:00,61.0,56.8,29.97,East,101,0.0,0.0,86,0.00,,---,0.04,VWS V14.00,2013-03-18 19:29:00,
2013-03-18 15:34:00,60.9,57.0,29.97,East,101,0.0,0.0,87,0.00,,---,0.04,VWS V14.00,2013-03-18 19:34:00,
2013-03-18 15:39:00,61.1,57.5,29.96,ESE,117,0.0,0.0,88,0.00,,---,0.04,VWS V14.00,2013-03-18 19:39:00,
2013-03-18 15:44:00,61.6,58.3,29.96,East,97,0.0,0.0,89,0.00,,---,0.04,VWS V14.00,2013-03-18 19:44:00,
2013-03-18 15:49:00,62.1,58.5,29.95,ESE,112,1.0,1.0,88,0.00,,---,0.04,VWS V14.00,2013-03-18 19:49:00,
2013-03-18 15:54:00,62.5,58.6,29.95,ESE,119,0.0,1.0,87,0.00,,---,0.04,VWS V14.00,2013-03-18 19:54:00,
2013-03-18 15:59:00,62.7,58.5,29.94,ESE,105,0.0,2.0,86,0.00,,---,0.04,VWS V14.00,2013-03-18 19:59:00,
2013-03-18 16:04:00,62.8,58.6,29.94,ESE,122,0.0,0.0,86,0.00,,---,0.04,VWS V14.00,2013-03-18 20:04:00,
2013-03-18 16:09:00,62.9,58.3,29.94,SE,127,1.0,1.0,85,0.00,,---,0.04,VWS V14.00,2013-03-18 20:09:00,
2013-03-18 16:14:00,62.9,58.7,29.94,NNE,32,1.0,1.0,86,0.00,,---,0.04,VWS V14.00,2013-03-18 20:14:00,
2013-03-18 16:15:00,62.9,58.3,29.94,SE,127,0.0,5.0,85,0.00,,---,0.04,VWS V14.00,2013-03-18 20:15:00,
2013-03-18 16:16:00,62.9,58.3,29.94,SSE,153,5.0,5.0,85,0.00,,---,0.04,VWS V14.00,2013-03-18 20:16:00,
2013-03-18 16:17:00,62.9,58.3,29.94,SE,141,4.0,5.0,85,0.00,,---,0.04,VWS V14.00,2013-03-18 20:17:00,
2013-03-18 16:18:00,62.9,58.3,29.94,SE,141,0.0,4.0,85,0.00,,---,0.04,VWS V14.00,2013-03-18 20:18:00,
2013-03-18 16:19:00,63.0,58.8,29.94,ESE,117,2.0,2.0,86,0.00,,---,0.04,VWS V14.00,2013-03-18 20:19:00,
2013-03-18 16:20:00,62.9,58.7,29.94,SE,141,1.0,1.0,86,0.00,,---,0.04,VWS V14.00,2013-03-18 20:20:00,
2013-03-18 16:21:00,63.0,58.8,29.94,SE,128,1.0,5.0,86,0.00,,---,0.04,VWS V14.00,2013-03-18 20:21:00,
2013-03-18 16:22:00,63.0,58.8,29.94,ESE,102,0.0,5.0,86,0.00,,---,0.04,VWS V14.00,2013-03-18 20:22:00,
2013-03-18 16:23:00,63.0,58.8,29.94,ESE,108,1.0,4.0,86,0.00,,---,0.04,VWS V14.00,2013-03-18 20:23:00,
2013-03-18 16:24:00,62.9,58.3,29.94,ESE,104,0.0,1.0,85,0.00,,---,0.04,VWS V14.00,2013-03-18 20:24:00,
2013-03-18 16:26:00,63.0,58.4,29.94,East,99,4.0,5.0,85,0.00,,---,0.04,VWS V14.00,2013-03-18 20:26:00,
2013-03-18 16:27:00,63.0,58.4,29.94,ESE,118,0.0,4.0,85,0.00,,---,0.04,VWS V14.00,2013-03-18 20:27:00,
2013-03-18 16:28:00,63.0,58.4,29.93,SE,131,1.0,5.0,85,0.00,,---,0.04,VWS V14.00,2013-03-18 20:28:00,
2013-03-18 16:29:00,62.8,58.2,29.94,ESE,112,0.0,0.0,85,0.00,,---,0.04,VWS V14.00,2013-03-18 20:29:00,
2013-03-18 16:30:00,62.9,58.3,29.93,ESE,104,1.0,1.0,85,0.00,,---,0.04,VWS V14.00,2013-03-18 20:30:00,
2013-03-18 16:31:00,62.9,58.3,29.94,East,99,2.0,4.0,85,0.00,,---,0.04,VWS V14.00,2013-03-18 20:31:00,
2013-03-18 16:32:00,62.9,58.3,29.93,ESE,102,1.0,2.0,85,0.00,,---,0.04,VWS V14.00,2013-03-18 20:32:00,
2013-03-18 16:33:00,62.9,58.3,29.94,ESE,105,1.0,2.0,85,0.00,,---,0.04,VWS V14.00,2013-03-18 20:33:00,
2013-03-18 16:34:00,62.6,58.4,29.94,ENE,73,1.0,4.0,86,0.00,,---,0.04,VWS V14.00,2013-03-18 20:34:00,
2013-03-18 16:35:00,62.8,58.2,29.94,ESE,112,0.0,4.0,85,0.00,,---,0.04,VWS V14.00,2013-03-18 20:35:00,
2013-03-18 16:36:00,62.7,58.1,29.94,ESE,112,0.0,1.0,85,0.00,,---,0.04,VWS V14.00,2013-03-18 20:36:00,
2013-03-18 16:37:00,62.7,58.1,29.94,SE,137,1.0,6.0,85,0.00,,---,0.04,VWS V14.00,2013-03-18 20:37:00,
2013-03-18 16:38:00,62.7,58.5,29.94,East,81,1.0,4.0,86,0.00,,---,0.04,VWS V14.00,2013-03-18 20:38:00,
2013-03-18 16:39:00,62.5,58.3,29.94,ESE,109,0.0,1.0,86,0.00,,---,0.04,VWS V14.00,2013-03-18 20:39:00,
2013-03-18 16:40:00,62.6,58.4,29.94,ENE,73,1.0,4.0,86,0.00,,---,0.04,VWS V14.00,2013-03-18 20:40:00,
2013-03-18 16:41:00,62.6,58.4,29.94,ENE,73,1.0,2.0,86,0.00,,---,0.04,VWS V14.00,2013-03-18 20:41:00,
2013-03-18 16:42:00,62.6,58.4,29.94,ENE,72,0.0,2.0,86,0.00,,---,0.04,VWS V14.00,2013-03-18 20:42:00,
2013-03-18 16:43:00,62.5,58.3,29.94,ESE,122,0.0,4.0,86,0.00,,---,0.04,VWS V14.00,2013-03-18 20:43:00,
2013-03-18 16:44:00,62.3,58.1,29.94,East,98,0.0,2.0,86,0.00,,---,0.04,VWS V14.00,2013-03-18 20:44:00,
2013-03-18 16:45:00,62.5,58.3,29.94,ESE,109,1.0,2.0,86,0.00,,---,0.04,VWS V14.00,2013-03-18 20:45:00,
2013-03-18 16:46:00,62.5,58.3,29.94,ESE,117,0.0,2.0,86,0.00,,---,0.04,VWS V14.00,2013-03-18 20:46:00,
2013-03-18 16:47:00,62.4,58.2,29.94,ESE,117,2.0,2.0,86,0.00,,---,0.04,VWS V14.00,2013-03-18 20:47:00,
2013-03-18 16:48:00,62.4,58.2,29.94,ESE,117,0.0,2.0,86,0.00,,---,0.04,VWS V14.00,2013-03-18 20:48:00,
2013-03-18 16:49:00,62.3,58.4,29.94,ESE,111,1.0,1.0,87,0.00,,---,0.04,VWS V14.00,2013-03-18 20:49:00,
2013-03-18 16:50:00,62.4,58.2,29.94,East,98,2.0,2.0,86,0.00,,---,0.04,VWS V14.00,2013-03-18 20:50:00,
2013-03-18 16:52:00,62.3,58.4,29.94,East,98,0.0,1.0,87,0.00,,---,0.04,VWS V14.00,2013-03-18 20:52:00,
2013-03-18 16:53:00,62.3,58.4,29.94,East,98,0.0,1.0,87,0.00,,---,0.04,VWS V14.00,2013-03-18 20:53:00,
2013-03-18 16:54:00,62.3,58.4,29.94,East,91,0.0,1.0,87,0.00,,---,0.04,VWS V14.00,2013-03-18 20:54:00,
2013-03-18 16:55:00,62.3,58.4,29.94,ESE,111,1.0,4.0,87,0.00,,---,0.04,VWS V14.00,2013-03-18 20:55:00,
2013-03-18 16:56:00,62.3,58.4,29.94,ESE,111,0.0,2.0,87,0.00,,---,0.04,VWS V14.00,2013-03-18 20:56:00,
2013-03-18 16:57:00,62.3,58.4,29.94,ESE,111,1.0,2.0,87,0.00,,---,0.04,VWS V14.00,2013-03-18 20:57:00,
2013-03-18 16:58:00,62.3,58.4,29.94,ESE,111,0.0,1.0,87,0.00,,---,0.04,VWS V14.00,2013-03-18 20:58:00,
2013-03-18 16:59:00,62.3,58.7,29.94,East,95,2.0,2.0,88,0.00,,---,0.04,VWS V14.00,2013-03-18 20:59:00,
2013-03-18 17:00:00,62.3,58.4,29.94,East,91,0.0,4.0,87,0.00,,---,0.04,VWS V14.00,2013-03-18 21:00:00,
2013-03-18 17:01:00,62.3,58.4,29.94,East,91,0.0,1.0,87,0.00,,---,0.04,VWS V14.00,2013-03-18 21:01:00,
2013-03-18 17:02:00,62.3,58.4,29.94,East,91,0.0,1.0,87,0.00,,---,0.04,VWS V14.00,2013-03-18 21:02:00,
2013-03-18 17:03:00,62.3,58.4,29.94,East,99,1.0,1.0,87,0.00,,---,0.04,VWS V14.00,2013-03-18 21:03:00,
2013-03-18 17:04:00,62.3,58.7,29.93,East,96,0.0,0.0,88,0.00,,---,0.04,VWS V14.00,2013-03-18 21:04:00,
2013-03-18 17:05:00,62.3,58.7,29.94,East,95,1.0,2.0,88,0.00,,---,0.04,VWS V14.00,2013-03-18 21:05:00,
2013-03-18 17:06:00,62.3,58.7,29.94,East,95,0.0,2.0,88,0.00,,---,0.04,VWS V14.00,2013-03-18 21:06:00,
2013-03-18 17:07:00,62.3,58.7,29.93,East,95,0.0,0.0,88,0.00,,---,0.04,VWS V14.00,2013-03-18 21:07:00,
2013-03-18 17:08:00,62.3,58.7,29.93,East,95,1.0,1.0,88,0.00,,---,0.04,VWS V14.00,2013-03-18 21:08:00,
2013-03-18 17:09:00,62.2,58.6,29.93,East,97,0.0,0.0,88,0.00,,---,0.04,VWS V14.00,2013-03-18 21:09:00,
2013-03-18 17:10:00,62.3,58.7,29.93,East,96,0.0,2.0,88,0.00,,---,0.04,VWS V14.00,2013-03-18 21:10:00,
2013-03-18 17:11:00,62.3,58.4,29.93,East,96,0.0,1.0,87,0.00,,---,0.04,VWS V14.00,2013-03-18 21:11:00,
2013-03-18 17:12:00,62.2,58.6,29.93,East,96,0.0,1.0,88,0.00,,---,0.04,VWS V14.00,2013-03-18 21:12:00,
2013-03-18 17:13:00,62.2,58.6,29.93,East,97,0.0,2.0,88,0.00,,---,0.04,VWS V14.00,2013-03-18 21:13:00,
2013-03-18 17:14:00,62.2,58.6,29.93,East,97,0.0,0.0,88,0.00,,---,0.04,VWS V14.00,2013-03-18 21:14:00,
2013-03-18 17:15:00,62.2,58.6,29.93,East,97,0.0,2.0,88,0.00,,---,0.04,VWS V14.00,2013-03-18 21:15:00,
2013-03-18 17:16:00,62.2,58.6,29.93,East,97,0.0,1.0,88,0.00,,---,0.04,VWS V14.00,2013-03-18 21:16:00,
2013-03-18 17:17:00,62.2,58.6,29.93,East,97,0.0,1.0,88,0.00,,---,0.04,VWS V14.00,2013-03-18 21:17:00,
2013-03-18 17:18:00,62.2,58.6,29.93,East,97,0.0,0.0,88,0.00,,---,0.04,VWS V14.00,2013-03-18 21:18:00,
2013-03-18 17:19:00,62.2,58.6,29.93,East,98,1.0,1.0,88,0.00,,---,0.04,VWS V14.00,2013-03-18 21:19:00,
2013-03-18 17:20:00,62.2,58.6,29.93,East,97,0.0,1.0,88,0.00,,---,0.04,VWS V14.00,2013-03-18 21:20:00,
2013-03-18 17:21:00,62.2,58.6,29.93,East,97,1.0,1.0,88,0.00,,---,0.04,VWS V14.00,2013-03-18 21:21:00,
2013-03-18 17:22:00,62.2,58.6,29.93,East,97,0.0,1.0,88,0.00,,---,0.04,VWS V14.00,2013-03-18 21:22:00,
2013-03-18 17:23:00,62.2,58.6,29.93,East,98,1.0,1.0,88,0.00,,---,0.04,VWS V14.00,2013-03-18 21:23:00,
2013-03-18 17:24:00,62.3,58.7,29.93,East,98,0.0,0.0,88,0.00,,---,0.04,VWS V14.00,2013-03-18 21:24:00,
2013-03-18 17:25:00,62.2,58.6,29.93,East,98,1.0,1.0,88,0.00,,---,0.04,VWS V14.00,2013-03-18 21:25:00,
2013-03-18 17:26:00,62.2,58.6,29.93,East,98,0.0,2.0,88,0.00,,---,0.04,VWS V14.00,2013-03-18 21:26:00,
2013-03-18 17:27:00,62.3,58.7,29.93,East,98,0.0,0.0,88,0.00,,---,0.04,VWS V14.00,2013-03-18 21:27:00,
2013-03-18 17:28:00,62.3,58.7,29.93,East,98,0.0,1.0,88,0.00,,---,0.04,VWS V14.00,2013-03-18 21:28:00,
2013-03-18 17:29:00,62.4,58.8,29.93,East,98,0.0,0.0,88,0.00,,---,0.04,VWS V14.00,2013-03-18 21:29:00,
2013-03-18 17:30:00,62.3,58.7,29.93,East,98,0.0,0.0,88,0.00,,---,0.04,VWS V14.00,2013-03-18 21:30:00,
2013-03-18 17:31:00,62.3,58.7,29.93,East,98,0.0,0.0,88,0.00,,---,0.04,VWS V14.00,2013-03-18 21:31:00,
2013-03-18 17:32:00,62.3,58.7,29.93,East,98,0.0,0.0,88,0.00,,---,0.04,VWS V14.00,2013-03-18 21:32:00,
2013-03-18 17:33:00,62.4,58.8,29.93,East,98,0.0,0.0,88,0.00,,---,0.04,VWS V14.00,2013-03-18 21:33:00,
2013-03-18 17:34:00,62.5,59.2,29.93,East,98,1.0,1.0,89,0.00,,---,0.04,VWS V14.00,2013-03-18 21:34:00,
2013-03-18 17:35:00,62.4,58.8,29.93,East,98,0.0,1.0,88,0.00,,---,0.04,VWS V14.00,2013-03-18 21:35:00,
2013-03-18 17:36:00,62.4,58.8,29.93,East,98,0.0,0.0,88,0.00,,---,0.04,VWS V14.00,2013-03-18 21:36:00,
2013-03-18 17:38:00,62.5,58.9,29.93,East,98,0.0,1.0,88,0.00,,---,0.04,VWS V14.00,2013-03-18 21:38:00,
2013-03-18 17:39:00,62.6,59.3,29.94,East,98,0.0,0.0,89,0.00,,---,0.04,VWS V14.00,2013-03-18 21:39:00,
2013-03-18 17:40:00,62.5,59.2,29.93,East,98,0.0,2.0,89,0.00,,---,0.04,VWS V14.00,2013-03-18 21:40:00,
2013-03-18 17:41:00,62.5,59.2,29.93,East,98,0.0,1.0,89,0.00,,---,0.04,VWS V14.00,2013-03-18 21:41:00,
2013-03-18 17:42:00,62.5,59.2,29.93,East,98,0.0,1.0,89,0.00,,---,0.04,VWS V14.00,2013-03-18 21:42:00,
2013-03-18 17:43:00,62.5,58.9,29.93,East,98,0.0,2.0,88,0.00,,---,0.04,VWS V14.00,2013-03-18 21:43:00,
2013-03-18 17:44:00,62.6,59.0,29.93,East,98,0.0,0.0,88,0.00,,---,0.04,VWS V14.00,2013-03-18 21:44:00,
2013-03-18 17:45:00,62.5,59.2,29.94,East,98,0.0,1.0,89,0.00,,---,0.04,VWS V14.00,2013-03-18 21:45:00,
2013-03-18 17:46:00,62.6,59.0,29.94,East,98,0.0,0.0,88,0.00,,---,0.04,VWS V14.00,2013-03-18 21:46:00,
2013-03-18 17:47:00,62.6,59.0,29.94,East,98,0.0,1.0,88,0.00,,---,0.04,VWS V14.00,2013-03-18 21:47:00,
2013-03-18 17:48:00,62.6,59.0,29.93,East,98,0.0,0.0,88,0.00,,---,0.04,VWS V14.00,2013-03-18 21:48:00,
2013-03-18 17:49:00,62.6,59.0,29.93,East,98,0.0,0.0,88,0.00,,---,0.04,VWS V14.00,2013-03-18 21:49:00,
2013-03-18 17:50:00,62.6,59.0,29.93,East,98,0.0,0.0,88,0.00,,---,0.04,VWS V14.00,2013-03-18 21:50:00,
2013-03-18 17:51:00,62.6,59.0,29.93,East,98,0.0,1.0,88,0.00,,---,0.04,VWS V14.00,2013-03-18 21:51:00,
2013-03-18 17:52:00,62.6,59.0,29.93,East,98,0.0,0.0,88,0.00,,---,0.04,VWS V14.00,2013-03-18 21:52:00,
2013-03-18 17:53:00,62.6,59.0,29.93,East,98,0.0,1.0,88,0.00,,---,0.04,VWS V14.00,2013-03-18 21:53:00,
2013-03-18 17:54:00,62.6,59.0,29.93,East,98,0.0,0.0,88,0.00,,---,0.04,VWS V14.00,2013-03-18 21:54:00,
2013-03-18 17:55:00,62.6,59.0,29.93,East,98,0.0,1.0,88,0.00,,---,0.04,VWS V14.00,2013-03-18 21:55:00,
2013-03-18 17:56:00,62.6,59.0,29.93,East,98,0.0,0.0,88,0.00,,---,0.04,VWS V14.00,2013-03-18 21:56:00,
2013-03-18 17:57:00,62.6,59.0,29.93,East,98,0.0,0.0,88,0.00,,---,0.04,VWS V14.00,2013-03-18 21:57:00,
2013-03-18 17:58:00,62.6,59.0,29.93,East,98,0.0,0.0,88,0.00,,---,0.04,VWS V14.00,2013-03-18 21:58:00,
2013-03-18 17:59:00,62.6,59.0,29.93,East,98,1.0,2.0,88,0.00,,---,0.04,VWS V14.00,2013-03-18 21:59:00,
2013-03-18 18:00:00,62.6,59.0,29.93,East,98,0.0,0.0,88,0.00,,---,0.04,VWS V14.00,2013-03-18 22:00:00,
2013-03-18 18:01:00,62.6,59.0,29.93,East,98,0.0,0.0,88,0.00,,---,0.04,VWS V14.00,2013-03-18 22:01:00,
2013-03-18 18:02:00,62.6,59.0,29.93,East,98,0.0,0.0,88,0.00,,---,0.04,VWS V14.00,2013-03-18 22:02:00,
2013-03-18 18:03:00,62.6,59.0,29.93,East,98,1.0,2.0,88,0.00,,---,0.04,VWS V14.00,2013-03-18 22:03:00,
2013-03-18 18:04:00,62.7,59.1,29.93,East,98,1.0,1.0,88,0.00,,---,0.04,VWS V14.00,2013-03-18 22:04:00,
2013-03-18 18:05:00,62.7,59.1,29.93,East,98,2.0,2.0,88,0.00,,---,0.04,VWS V14.00,2013-03-18 22:05:00,
2013-03-18 18:06:00,62.6,59.0,29.93,East,98,0.0,2.0,88,0.00,,---,0.04,VWS V14.00,2013-03-18 22:06:00,
2013-03-18 18:07:00,62.6,59.0,29.93,East,98,0.0,0.0,88,0.00,,---,0.04,VWS V14.00,2013-03-18 22:07:00,
2013-03-18 18:08:00,62.7,59.1,29.93,East,98,0.0,0.0,88,0.00,,---,0.04,VWS V14.00,2013-03-18 22:08:00,
2013-03-18 18:09:00,62.6,59.3,29.92,East,98,0.0,0.0,89,0.00,,---,0.04,VWS V14.00,2013-03-18 22:09:00,
2013-03-18 18:10:00,62.6,59.0,29.93,East,98,0.0,1.0,88,0.00,,---,0.04,VWS V14.00,2013-03-18 22:10:00,
2013-03-18 18:11:00,62.6,59.0,29.93,East,98,0.0,1.0,88,0.00,,---,0.04,VWS V14.00,2013-03-18 22:11:00,
2013-03-18 18:12:00,62.6,59.0,29.92,East,98,0.0,1.0,88,0.00,,---,0.04,VWS V14.00,2013-03-18 22:12:00,
2013-03-18 18:13:00,62.6,59.3,29.92,East,98,0.0,0.0,89,0.00,,---,0.04,VWS V14.00,2013-03-18 22:13:00,
2013-03-18 18:14:00,62.7,59.4,29.91,East,98,0.0,1.0,89,0.00,,---,0.04,VWS V14.00,2013-03-18 22:14:00,
2013-03-18 18:15:00,62.6,59.3,29.92,East,98,0.0,1.0,89,0.00,,---,0.04,VWS V14.00,2013-03-18 22:15:00,
2013-03-18 18:16:00,62.6,59.3,29.92,East,98,0.0,1.0,89,0.00,,---,0.04,VWS V14.00,2013-03-18 22:16:00,
2013-03-18 18:17:00,62.7,59.4,29.92,East,98,0.0,2.0,89,0.00,,---,0.04,VWS V14.00,2013-03-18 22:17:00,
2013-03-18 18:18:00,62.6,59.3,29.92,East,98,0.0,0.0,89,0.00,,---,0.04,VWS V14.00,2013-03-18 22:18:00,
2013-03-18 18:19:00,62.7,59.4,29.91,East,99,0.0,0.0,89,0.00,,---,0.04,VWS V14.00,2013-03-18 22:19:00,
2013-03-18 18:20:00,62.7,59.4,29.91,East,98,1.0,1.0,89,0.00,,---,0.04,VWS V14.00,2013-03-18 22:20:00,
2013-03-18 18:21:00,62.7,59.4,29.91,East,98,0.0,1.0,89,0.00,,---,0.04,VWS V14.00,2013-03-18 22:21:00,
2013-03-18 18:22:00,62.7,59.4,29.91,East,98,0.0,1.0,89,0.00,,---,0.04,VWS V14.00,2013-03-18 22:22:00,
2013-03-18 18:23:00,62.7,59.4,29.91,East,99,0.0,2.0,89,0.00,,---,0.04,VWS V14.00,2013-03-18 22:23:00,
2013-03-18 18:24:00,62.6,59.3,29.91,East,99,0.0,1.0,89,0.00,,---,0.04,VWS V14.00,2013-03-18 22:24:00,
2013-03-18 18:26:00,62.7,59.4,29.91,East,99,0.0,1.0,89,0.00,,---,0.04,VWS V14.00,2013-03-18 22:26:00,
2013-03-18 18:27:00,62.7,59.4,29.91,East,99,0.0,0.0,89,0.00,,---,0.04,VWS V14.00,2013-03-18 22:27:00,
2013-03-18 18:28:00,62.7,59.4,29.91,East,99,0.0,0.0,89,0.00,,---,0.04,VWS V14.00,2013-03-18 22:28:00,
2013-03-18 18:29:00,62.6,59.3,29.91,East,99,0.0,0.0,89,0.00,,---,0.04,VWS V14.00,2013-03-18 22:29:00,
2013-03-18 18:30:00,62.7,59.4,29.91,East,99,1.0,1.0,89,0.00,,---,0.04,VWS V14.00,2013-03-18 22:30:00,
2013-03-18 18:31:00,62.7,59.4,29.91,East,99,0.0,1.0,89,0.00,,---,0.04,VWS V14.00,2013-03-18 22:31:00,
2013-03-18 18:32:00,62.6,59.3,29.91,East,99,0.0,1.0,89,0.00,,---,0.04,VWS V14.00,2013-03-18 22:32:00,
2013-03-18 18:33:00,62.6,59.3,29.91,East,99,0.0,0.0,89,0.00,,---,0.04,VWS V14.00,2013-03-18 22:33:00,
2013-03-18 18:34:00,62.6,59.6,29.91,East,99,1.0,1.0,90,0.00,,---,0.04,VWS V14.00,2013-03-18 22:34:00,
2013-03-18 18:35:00,62.6,59.3,29.91,East,99,0.0,0.0,89,0.00,,---,0.04,VWS V14.00,2013-03-18 22:35:00,
2013-03-18 18:36:00,62.6,59.3,29.91,East,99,0.0,0.0,89,0.00,,---,0.04,VWS V14.00,2013-03-18 22:36:00,
2013-03-18 18:37:00,62.6,59.3,29.91,East,99,0.0,1.0,89,0.00,,---,0.04,VWS V14.00,2013-03-18 22:37:00,
2013-03-18 18:38:00,62.6,59.3,29.91,East,99,0.0,1.0,89,0.00,,---,0.04,VWS V14.00,2013-03-18 22:38:00,
2013-03-18 18:39:00,62.6,59.6,29.91,East,99,0.0,0.0,90,0.00,,---,0.04,VWS V14.00,2013-03-18 22:39:00,
2013-03-18 18:40:00,62.6,59.3,29.91,East,99,0.0,1.0,89,0.00,,---,0.04,VWS V14.00,2013-03-18 22:40:00,
2013-03-18 18:41:00,62.6,59.6,29.91,East,99,0.0,1.0,90,0.00,,---,0.04,VWS V14.00,2013-03-18 22:41:00,
2013-03-18 18:42:00,62.6,59.6,29.90,East,99,0.0,1.0,90,0.00,,---,0.04,VWS V14.00,2013-03-18 22:42:00,
2013-03-18 18:43:00,62.6,59.6,29.90,East,99,0.0,1.0,90,0.00,,---,0.04,VWS V14.00,2013-03-18 22:43:00,
2013-03-18 18:44:00,62.6,59.6,29.91,East,99,0.0,0.0,90,0.00,,---,0.04,VWS V14.00,2013-03-18 22:44:00,
2013-03-18 18:45:00,62.6,59.6,29.90,East,99,0.0,0.0,90,0.00,,---,0.04,VWS V14.00,2013-03-18 22:45:00,
2013-03-18 18:46:00,62.6,59.6,29.91,East,99,0.0,0.0,90,0.00,,---,0.04,VWS V14.00,2013-03-18 22:46:00,
2013-03-18 18:47:00,62.6,59.6,29.91,East,99,0.0,0.0,90,0.00,,---,0.04,VWS V14.00,2013-03-18 22:47:00,
2013-03-18 18:48:00,62.6,59.6,29.91,East,99,0.0,0.0,90,0.00,,---,0.04,VWS V14.00,2013-03-18 22:48:00,
2013-03-18 18:49:00,62.5,59.5,29.91,East,99,1.0,1.0,90,0.00,,---,0.04,VWS V14.00,2013-03-18 22:49:00,
2013-03-18 18:50:00,62.6,59.6,29.91,East,99,0.0,0.0,90,0.00,,---,0.04,VWS V14.00,2013-03-18 22:50:00,
2013-03-18 18:51:00,62.6,59.6,29.91,East,99,0.0,0.0,90,0.00,,---,0.04,VWS V14.00,2013-03-18 22:51:00,
2013-03-18 18:52:00,62.6,59.6,29.91,East,99,0.0,0.0,90,0.00,,---,0.04,VWS V14.00,2013-03-18 22:52:00,
2013-03-18 18:53:00,62.5,59.5,29.91,East,99,0.0,1.0,90,0.00,,---,0.04,VWS V14.00,2013-03-18 22:53:00,
2013-03-18 18:54:00,62.5,59.5,29.90,East,99,0.0,0.0,90,0.00,,---,0.04,VWS V14.00,2013-03-18 22:54:00,
2013-03-18 18:55:00,62.5,59.5,29.91,East,99,1.0,1.0,90,0.00,,---,0.04,VWS V14.00,2013-03-18 22:55:00,
2013-03-18 18:57:00,62.5,59.5,29.90,East,99,1.0,1.0,90,0.00,,---,0.04,VWS V14.00,2013-03-18 22:57:00,
2013-03-18 18:58:00,62.5,59.5,29.90,East,99,0.0,1.0,90,0.00,,---,0.04,VWS V14.00,2013-03-18 22:58:00,
2013-03-18 18:59:00,62.5,59.5,29.91,East,99,0.0,1.0,90,0.00,,---,0.04,VWS V14.00,2013-03-18 22:59:00,
2013-03-18 19:00:00,62.5,59.5,29.90,East,99,0.0,0.0,90,0.00,,---,0.04,VWS V14.00,2013-03-18 23:00:00,
2013-03-18 19:01:00,62.5,59.5,29.90,East,99,1.0,1.0,90,0.00,,---,0.04,VWS V14.00,2013-03-18 23:01:00,
2013-03-18 19:02:00,62.5,59.5,29.90,East,100,0.0,1.0,90,0.00,,---,0.04,VWS V14.00,2013-03-18 23:02:00,
2013-03-18 19:03:00,62.5,59.5,29.90,East,99,0.0,0.0,90,0.00,,---,0.04,VWS V14.00,2013-03-18 23:03:00,
2013-03-18 19:04:00,62.3,59.3,29.90,ENE,71,0.0,3.0,90,0.00,,---,0.04,VWS V14.00,2013-03-18 23:04:00,
2013-03-18 19:05:00,62.5,59.5,29.91,East,99,0.0,1.0,90,0.00,,---,0.04,VWS V14.00,2013-03-18 23:05:00,
2013-03-18 19:06:00,62.4,59.4,29.90,East,99,1.0,1.0,90,0.00,,---,0.04,VWS V14.00,2013-03-18 23:06:00,
2013-03-18 19:07:00,62.4,59.4,29.90,East,99,0.0,1.0,90,0.00,,---,0.04,VWS V14.00,2013-03-18 23:07:00,
2013-03-18 19:09:00,62.3,59.3,29.90,ENE,71,0.0,0.0,90,0.00,,---,0.04,VWS V14.00,2013-03-18 23:09:00,
2013-03-18 19:10:00,62.3,59.3,29.90,ENE,71,0.0,3.0,90,0.00,,---,0.04,VWS V14.00,2013-03-18 23:10:00,
2013-03-18 19:11:00,62.3,59.3,29.90,ENE,71,0.0,1.0,90,0.00,,---,0.04,VWS V14.00,2013-03-18 23:11:00,
2013-03-18 19:12:00,62.3,59.3,29.90,ENE,71,0.0,0.0,90,0.00,,---,0.04,VWS V14.00,2013-03-18 23:12:00,
2013-03-18 19:13:00,62.3,59.3,29.90,ENE,71,0.0,0.0,90,0.00,,---,0.04,VWS V14.00,2013-03-18 23:13:00,
2013-03-18 19:14:00,62.2,59.2,29.90,ENE,71,2.0,2.0,90,0.00,,---,0.04,VWS V14.00,2013-03-18 23:14:00,
2013-03-18 19:15:00,62.3,59.3,29.90,ENE,71,0.0,0.0,90,0.00,,---,0.04,VWS V14.00,2013-03-18 23:15:00,
2013-03-18 19:16:00,62.3,59.3,29.90,ENE,71,0.0,1.0,90,0.00,,---,0.04,VWS V14.00,2013-03-18 23:16:00,
2013-03-18 19:17:00,62.3,59.3,29.90,ENE,71,0.0,0.0,90,0.00,,---,0.04,VWS V14.00,2013-03-18 23:17:00,
2013-03-18 19:18:00,62.2,59.2,29.90,ENE,71,0.0,0.0,90,0.00,,---,0.04,VWS V14.00,2013-03-18 23:18:00,
2013-03-18 19:19:00,62.1,59.1,29.90,ENE,71,0.0,0.0,90,0.00,,---,0.04,VWS V14.00,2013-03-18 23:19:00,
2013-03-18 19:20:00,62.2,59.2,29.90,ENE,71,2.0,2.0,90,0.00,,---,0.04,VWS V14.00,2013-03-18 23:20:00,
2013-03-18 19:21:00,62.2,59.2,29.90,ENE,71,0.0,2.0,90,0.00,,---,0.04,VWS V14.00,2013-03-18 23:21:00,
2013-03-18 19:22:00,62.2,59.2,29.90,ENE,71,0.0,0.0,90,0.00,,---,0.04,VWS V14.00,2013-03-18 23:22:00,
2013-03-18 19:23:00,62.2,59.2,29.90,ENE,71,0.0,1.0,90,0.00,,---,0.04,VWS V14.00,2013-03-18 23:23:00,
2013-03-18 19:24:00,62.0,59.0,29.90,ENE,71,0.0,0.0,90,0.00,,---,0.04,VWS V14.00,2013-03-18 23:24:00,
2013-03-18 19:25:00,62.1,59.1,29.90,ENE,71,0.0,0.0,90,0.00,,---,0.04,VWS V14.00,2013-03-18 23:25:00,
2013-03-18 19:26:00,62.1,59.1,29.90,ENE,71,0.0,0.0,90,0.00,,---,0.04,VWS V14.00,2013-03-18 23:26:00,
2013-03-18 19:27:00,62.0,59.0,29.90,ENE,71,0.0,0.0,90,0.00,,---,0.04,VWS V14.00,2013-03-18 23:27:00,
2013-03-18 19:28:00,62.0,59.0,29.90,ENE,71,0.0,0.0,90,0.00,,---,0.04,VWS V14.00,2013-03-18 23:28:00,
2013-03-18 19:29:00,61.8,58.8,29.89,ENE,71,0.0,0.0,90,0.00,,---,0.04,VWS V14.00,2013-03-18 23:29:00,
2013-03-18 19:30:00,62.0,59.0,29.90,ENE,71,0.0,0.0,90,0.00,,---,0.04,VWS V14.00,2013-03-18 23:30:00,
2013-03-18 19:31:00,61.9,58.9,29.90,ENE,71,0.0,0.0,90,0.00,,---,0.04,VWS V14.00,2013-03-18 23:31:00,
2013-03-18 19:32:00,61.9,58.9,29.89,ENE,71,0.0,0.0,90,0.00,,---,0.04,VWS V14.00,2013-03-18 23:32:00,
2013-03-18 19:33:00,61.9,58.9,29.89,ENE,71,0.0,0.0,90,0.00,,---,0.04,VWS V14.00,2013-03-18 23:33:00,
2013-03-18 19:34:00,61.7,58.7,29.89,ENE,71,0.0,0.0,90,0.00,,---,0.04,VWS V14.00,2013-03-18 23:34:00,
2013-03-18 19:35:00,61.8,58.8,29.89,ENE,71,0.0,0.0,90,0.00,,---,0.04,VWS V14.00,2013-03-18 23:35:00,
2013-03-18 19:36:00,61.8,58.8,29.89,ENE,71,0.0,0.0,90,0.00,,---,0.04,VWS V14.00,2013-03-18 23:36:00,
2013-03-18 19:37:00,61.8,58.8,29.89,ENE,71,0.0,0.0,90,0.00,,---,0.04,VWS V14.00,2013-03-18 23:37:00,
2013-03-18 19:38:00,61.7,58.7,29.89,ENE,71,0.0,0.0,90,0.00,,---,0.04,VWS V14.00,2013-03-18 23:38:00,
2013-03-18 19:39:00,61.5,58.5,29.89,ENE,71,0.0,0.0,90,0.00,,---,0.04,VWS V14.00,2013-03-18 23:39:00,
2013-03-18 19:40:00,61.7,58.7,29.89,ENE,71,0.0,0.0,90,0.00,,---,0.04,VWS V14.00,2013-03-18 23:40:00,
2013-03-18 19:41:00,61.6,58.6,29.89,ENE,71,0.0,0.0,90,0.00,,---,0.04,VWS V14.00,2013-03-18 23:41:00,
2013-03-18 19:42:00,61.6,58.6,29.89,ENE,71,0.0,0.0,90,0.00,,---,0.04,VWS V14.00,2013-03-18 23:42:00,
2013-03-18 19:43:00,61.6,58.6,29.89,ENE,71,0.0,0.0,90,0.00,,---,0.04,VWS V14.00,2013-03-18 23:43:00,
2013-03-18 19:44:00,61.3,58.3,29.88,ENE,71,0.0,0.0,90,0.00,,---,0.04,VWS V14.00,2013-03-18 23:44:00,
2013-03-18 19:45:00,61.5,58.5,29.89,ENE,71,0.0,0.0,90,0.00,,---,0.04,VWS V14.00,2013-03-18 23:45:00,
2013-03-18 19:46:00,61.5,58.5,29.89,ENE,71,0.0,0.0,90,0.00,,---,0.04,VWS V14.00,2013-03-18 23:46:00,
2013-03-18 19:47:00,61.4,58.5,29.89,ENE,71,0.0,0.0,90,0.00,,---,0.04,VWS V14.00,2013-03-18 23:47:00,
2013-03-18 19:48:00,61.4,58.5,29.88,ENE,71,0.0,0.0,90,0.00,,---,0.04,VWS V14.00,2013-03-18 23:48:00,
2013-03-18 19:49:00,61.2,58.2,29.88,ENE,71,0.0,0.0,90,0.00,,---,0.04,VWS V14.00,2013-03-18 23:49:00,
2013-03-18 19:50:00,61.3,58.3,29.88,ENE,71,0.0,0.0,90,0.00,,---,0.04,VWS V14.00,2013-03-18 23:50:00,
2013-03-18 19:51:00,61.3,58.3,29.88,ENE,71,0.0,0.0,90,0.00,,---,0.04,VWS V14.00,2013-03-18 23:51:00,
2013-03-18 19:52:00,61.3,58.3,29.88,ENE,71,0.0,0.0,90,0.00,,---,0.04,VWS V14.00,2013-03-18 23:52:00,
2013-03-18 19:53:00,61.2,58.2,29.88,ENE,71,0.0,0.0,90,0.00,,---,0.04,VWS V14.00,2013-03-18 23:53:00,
2013-03-18 19:54:00,61.0,58.0,29.88,ENE,71,0.0,0.0,90,0.00,,---,0.04,VWS V14.00,2013-03-18 23:54:00,
2013-03-18 19:55:00,61.2,58.2,29.88,ENE,71,0.0,0.0,90,0.00,,---,0.04,VWS V14.00,2013-03-18 23:55:00,
2013-03-18 19:56:00,61.1,58.2,29.88,ENE,71,0.0,0.0,90,0.00,,---,0.04,VWS V14.00,2013-03-18 23:56:00,
2013-03-18 19:57:00,61.1,58.2,29.88,ENE,71,0.0,0.0,90,0.00,,---,0.04,VWS V14.00,2013-03-18 23:57:00,
2013-03-18 19:58:00,61.1,58.2,29.88,ENE,71,0.0,0.0,90,0.00,,---,0.04,VWS V14.00,2013-03-18 23:58:00,
2013-03-18 19:59:00,60.8,57.8,29.88,ENE,71,0.0,0.0,90,0.00,,---,0.04,VWS V14.00,2013-03-18 23:59:00,
2013-03-18 20:00:00,61.0,58.0,29.88,ENE,71,0.0,0.0,90,0.00,,---,0.04,VWS V14.00,2013-03-19 00:00:00,
2013-03-18 20:01:00,61.0,58.0,29.88,ENE,71,0.0,0.0,90,0.00,,---,0.04,VWS V14.00,2013-03-19 00:01:00,
2013-03-18 20:03:00,60.9,58.0,29.88,ENE,71,0.0,0.0,90,0.00,,---,0.04,VWS V14.00,2013-03-19 00:03:00,
2013-03-18 20:04:00,60.7,57.8,29.87,ENE,71,0.0,0.0,90,0.00,,---,0.04,VWS V14.00,2013-03-19 00:04:00,
2013-03-18 20:05:00,60.8,57.8,29.88,ENE,71,0.0,0.0,90,0.00,,---,0.04,VWS V14.00,2013-03-19 00:05:00,
2013-03-18 20:06:00,60.8,57.8,29.88,ENE,71,0.0,0.0,90,0.00,,---,0.04,VWS V14.00,2013-03-19 00:06:00,
2013-03-18 20:07:00,60.8,57.8,29.88,ENE,71,0.0,0.0,90,0.00,,---,0.04,VWS V14.00,2013-03-19 00:07:00,
2013-03-18 20:08:00,60.7,57.8,29.88,ENE,71,0.0,0.0,90,0.00,,---,0.04,VWS V14.00,2013-03-19 00:08:00,
2013-03-18 20:09:00,60.5,57.9,29.87,ENE,71,0.0,0.0,91,0.00,,---,0.04,VWS V14.00,2013-03-19 00:09:00,
2013-03-18 20:10:00,60.7,57.8,29.87,ENE,71,0.0,0.0,90,0.00,,---,0.04,VWS V14.00,2013-03-19 00:10:00,
2013-03-18 20:11:00,60.6,57.7,29.87,ENE,71,0.0,0.0,90,0.00,,---,0.04,VWS V14.00,2013-03-19 00:11:00,
2013-03-18 20:12:00,60.6,57.7,29.87,ENE,71,0.0,0.0,90,0.00,,---,0.04,VWS V14.00,2013-03-19 00:12:00,
2013-03-18 20:13:00,60.6,57.7,29.87,ENE,71,0.0,0.0,90,0.00,,---,0.04,VWS V14.00,2013-03-19 00:13:00,
2013-03-18 20:14:00,60.4,57.8,29.87,ENE,71,0.0,0.0,91,0.00,,---,0.04,VWS V14.00,2013-03-19 00:14:00,
2013-03-18 20:15:00,60.5,57.9,29.87,ENE,71,0.0,0.0,91,0.00,,---,0.04,VWS V14.00,2013-03-19 00:15:00,
2013-03-18 20:16:00,60.5,57.6,29.86,ENE,71,0.0,1.0,90,0.00,,---,0.04,VWS V14.00,2013-03-19 00:16:00,
2013-03-18 20:17:00,60.5,57.6,29.87,ENE,71,0.0,0.0,90,0.00,,---,0.04,VWS V14.00,2013-03-19 00:17:00,
2013-03-18 20:18:00,60.4,57.8,29.87,ENE,71,0.0,1.0,91,0.00,,---,0.04,VWS V14.00,2013-03-19 00:18:00,
2013-03-18 20:19:00,60.2,57.6,29.87,ENE,71,0.0,0.0,91,0.00,,---,0.04,VWS V14.00,2013-03-19 00:19:00,
2013-03-18 20:20:00,60.4,57.8,29.87,ENE,71,0.0,0.0,91,0.00,,---,0.04,VWS V14.00,2013-03-19 00:20:00,
2013-03-18 20:21:00,60.3,57.7,29.87,ENE,71,0.0,1.0,91,0.00,,---,0.04,VWS V14.00,2013-03-19 00:21:00,
2013-03-18 20:22:00,60.3,57.7,29.87,ENE,71,0.0,0.0,91,0.00,,---,0.04,VWS V14.00,2013-03-19 00:22:00,
2013-03-18 20:23:00,60.3,57.7,29.87,ENE,71,0.0,0.0,91,0.00,,---,0.04,VWS V14.00,2013-03-19 00:23:00,
2013-03-18 20:24:00,60.1,57.5,29.88,ENE,71,0.0,0.0,91,0.00,,---,0.04,VWS V14.00,2013-03-19 00:24:00,
2013-03-18 20:25:00,60.2,57.6,29.87,ENE,71,0.0,0.0,91,0.00,,---,0.04,VWS V14.00,2013-03-19 00:25:00,
2013-03-18 20:26:00,60.2,57.6,29.88,ENE,71,0.0,0.0,91,0.00,,---,0.04,VWS V14.00,2013-03-19 00:26:00,
2013-03-18 20:27:00,60.2,57.6,29.88,ENE,71,0.0,0.0,91,0.00,,---,0.04,VWS V14.00,2013-03-19 00:27:00,
2013-03-18 20:28:00,60.2,57.6,29.88,ENE,71,0.0,0.0,91,0.00,,---,0.04,VWS V14.00,2013-03-19 00:28:00,
2013-03-18 20:29:00,60.0,57.4,29.88,ENE,71,0.0,0.0,91,0.00,,---,0.04,VWS V14.00,2013-03-19 00:29:00,
2013-03-18 20:30:00,60.1,57.5,29.88,ENE,71,0.0,0.0,91,0.00,,---,0.04,VWS V14.00,2013-03-19 00:30:00,
2013-03-18 20:31:00,60.1,57.5,29.88,ENE,71,0.0,0.0,91,0.00,,---,0.04,VWS V14.00,2013-03-19 00:31:00,
2013-03-18 20:32:00,60.1,57.5,29.88,ENE,71,0.0,0.0,91,0.00,,---,0.04,VWS V14.00,2013-03-19 00:32:00,
2013-03-18 20:33:00,60.1,57.5,29.88,ENE,71,0.0,0.0,91,0.00,,---,0.04,VWS V14.00,2013-03-19 00:33:00,
2013-03-18 20:34:00,59.9,57.3,29.89,ENE,71,0.0,0.0,91,0.00,,---,0.04,VWS V14.00,2013-03-19 00:34:00,
2013-03-18 20:35:00,60.0,57.4,29.88,ENE,71,0.0,0.0,91,0.00,,---,0.04,VWS V14.00,2013-03-19 00:35:00,
2013-03-18 20:36:00,60.0,57.4,29.88,ENE,71,0.0,0.0,91,0.00,,---,0.04,VWS V14.00,2013-03-19 00:36:00,
2013-03-18 20:37:00,60.0,57.4,29.88,ENE,71,0.0,0.0,91,0.00,,---,0.04,VWS V14.00,2013-03-19 00:37:00,
2013-03-18 20:38:00,60.0,57.4,29.89,ENE,71,0.0,0.0,91,0.00,,---,0.04,VWS V14.00,2013-03-19 00:38:00,
2013-03-18 20:39:00,59.8,57.5,29.89,ENE,71,0.0,0.0,92,0.00,,---,0.04,VWS V14.00,2013-03-19 00:39:00,
2013-03-18 20:40:00,59.9,57.3,29.89,ENE,71,0.0,0.0,91,0.00,,---,0.04,VWS V14.00,2013-03-19 00:40:00,
2013-03-18 20:41:00,59.9,57.6,29.89,ENE,71,0.0,0.0,92,0.00,,---,0.04,VWS V14.00,2013-03-19 00:41:00,
2013-03-18 20:42:00,59.9,57.6,29.89,ENE,71,0.0,0.0,92,0.00,,---,0.04,VWS V14.00,2013-03-19 00:42:00,
2013-03-18 20:43:00,59.9,57.6,29.89,ENE,71,0.0,0.0,92,0.00,,---,0.04,VWS V14.00,2013-03-19 00:43:00,
2013-03-18 20:44:00,59.7,57.4,29.89,ENE,71,0.0,0.0,92,0.00,,---,0.04,VWS V14.00,2013-03-19 00:44:00,
2013-03-18 20:45:00,59.8,57.5,29.89,ENE,71,0.0,0.0,92,0.00,,---,0.04,VWS V14.00,2013-03-19 00:45:00,
2013-03-18 20:46:00,59.8,57.5,29.89,ENE,71,0.0,0.0,92,0.00,,---,0.04,VWS V14.00,2013-03-19 00:46:00,
2013-03-18 20:47:00,59.8,57.5,29.89,ENE,71,0.0,0.0,92,0.00,,---,0.04,VWS V14.00,2013-03-19 00:47:00,
2013-03-18 20:48:00,59.7,57.4,29.89,ENE,71,0.0,0.0,92,0.00,,---,0.04,VWS V14.00,2013-03-19 00:48:00,
2013-03-18 20:49:00,59.6,57.3,29.89,ENE,71,0.0,0.0,92,0.00,,---,0.04,VWS V14.00,2013-03-19 00:49:00,
2013-03-18 20:50:00,59.7,57.4,29.89,ENE,71,0.0,0.0,92,0.00,,---,0.04,VWS V14.00,2013-03-19 00:50:00,
2013-03-18 20:51:00,59.7,57.4,29.89,ENE,71,0.0,0.0,92,0.00,,---,0.04,VWS V14.00,2013-03-19 00:51:00,
2013-03-18 20:52:00,59.7,57.4,29.89,ENE,71,0.0,0.0,92,0.00,,---,0.04,VWS V14.00,2013-03-19 00:52:00,
2013-03-18 20:53:00,59.6,57.3,29.89,ENE,71,0.0,0.0,92,0.00,,---,0.04,VWS V14.00,2013-03-19 00:53:00,
2013-03-18 20:54:00,59.7,57.4,29.89,ENE,71,0.0,0.0,92,0.00,,---,0.04,VWS V14.00,2013-03-19 00:54:00,
2013-03-18 20:56:00,59.6,57.3,29.89,ENE,71,0.0,0.0,92,0.00,,---,0.04,VWS V14.00,2013-03-19 00:56:00,
2013-03-18 20:57:00,59.6,57.3,29.89,ENE,71,0.0,0.0,92,0.00,,---,0.04,VWS V14.00,2013-03-19 00:57:00,
2013-03-18 20:58:00,59.6,57.3,29.89,ENE,71,0.0,0.0,92,0.00,,---,0.04,VWS V14.00,2013-03-19 00:58:00,
2013-03-18 20:59:00,59.6,57.6,29.89,ENE,71,0.0,0.0,93,0.00,,---,0.04,VWS V14.00,2013-03-19 00:59:00,
2013-03-18 21:00:00,59.7,57.4,29.89,ENE,71,0.0,0.0,92,0.00,,---,0.04,VWS V14.00,2013-03-19 01:00:00,
2013-03-18 21:02:00,59.7,57.7,29.89,ENE,71,0.0,0.0,93,0.00,,---,0.04,VWS V14.00,2013-03-19 01:02:00,
2013-03-18 21:03:00,59.6,57.6,29.89,ENE,71,0.0,0.0,93,0.00,,---,0.04,VWS V14.00,2013-03-19 01:03:00,
2013-03-18 21:04:00,59.7,57.7,29.89,ENE,71,0.0,0.0,93,0.00,,---,0.04,VWS V14.00,2013-03-19 01:04:00,
2013-03-18 21:05:00,59.6,57.6,29.89,ENE,71,0.0,0.0,93,0.00,,---,0.04,VWS V14.00,2013-03-19 01:05:00,
2013-03-18 21:06:00,59.6,57.6,29.89,ENE,71,0.0,0.0,93,0.00,,---,0.04,VWS V14.00,2013-03-19 01:06:00,
2013-03-18 21:07:00,59.6,57.6,29.89,ENE,71,0.0,0.0,93,0.00,,---,0.04,VWS V14.00,2013-03-19 01:07:00,
2013-03-18 21:08:00,59.6,57.6,29.89,ENE,71,0.0,0.0,93,0.00,,---,0.04,VWS V14.00,2013-03-19 01:08:00,
2013-03-18 21:09:00,59.6,57.6,29.89,ENE,71,0.0,0.0,93,0.00,,---,0.04,VWS V14.00,2013-03-19 01:09:00,
2013-03-18 21:10:00,59.7,57.7,29.89,ENE,71,0.0,0.0,93,0.00,,---,0.04,VWS V14.00,2013-03-19 01:10:00,
2013-03-18 21:11:00,59.6,57.6,29.89,ENE,71,0.0,0.0,93,0.00,,---,0.04,VWS V14.00,2013-03-19 01:11:00,
2013-03-18 21:12:00,59.6,57.6,29.89,ENE,71,0.0,0.0,93,0.00,,---,0.04,VWS V14.00,2013-03-19 01:12:00,
2013-03-18 21:13:00,59.6,57.6,29.89,ENE,71,0.0,0.0,93,0.00,,---,0.04,VWS V14.00,2013-03-19 01:13:00,
2013-03-18 21:14:00,59.7,57.7,29.88,ENE,71,0.0,0.0,93,0.00,,---,0.04,VWS V14.00,2013-03-19 01:14:00,
2013-03-18 21:15:00,59.6,57.6,29.89,ENE,71,0.0,0.0,93,0.00,,---,0.04,VWS V14.00,2013-03-19 01:15:00,
2013-03-18 21:16:00,59.7,57.7,29.88,ENE,71,0.0,0.0,93,0.00,,---,0.04,VWS V14.00,2013-03-19 01:16:00,
2013-03-18 21:17:00,59.7,57.7,29.88,ENE,71,0.0,0.0,93,0.00,,---,0.04,VWS V14.00,2013-03-19 01:17:00,
2013-03-18 21:18:00,59.7,57.7,29.88,ENE,71,0.0,0.0,93,0.00,,---,0.04,VWS V14.00,2013-03-19 01:18:00,
2013-03-18 21:19:00,59.7,58.0,29.87,ENE,71,0.0,0.0,94,0.00,,---,0.04,VWS V14.00,2013-03-19 01:19:00,
2013-03-18 21:20:00,59.7,57.7,29.88,ENE,71,0.0,0.0,93,0.00,,---,0.04,VWS V14.00,2013-03-19 01:20:00,
2013-03-18 21:21:00,59.7,57.7,29.88,ENE,71,0.0,0.0,93,0.00,,---,0.04,VWS V14.00,2013-03-19 01:21:00,
2013-03-18 21:22:00,59.7,57.7,29.88,ENE,71,0.0,0.0,93,0.00,,---,0.04,VWS V14.00,2013-03-19 01:22:00,
2013-03-18 21:23:00,59.7,58.0,29.87,ENE,71,0.0,0.0,94,0.00,,---,0.04,VWS V14.00,2013-03-19 01:23:00,
2013-03-18 21:24:00,59.7,58.0,29.86,ENE,71,0.0,0.0,94,0.00,,---,0.04,VWS V14.00,2013-03-19 01:24:00,
2013-03-18 21:25:00,59.7,58.0,29.87,ENE,71,0.0,0.0,94,0.00,,---,0.04,VWS V14.00,2013-03-19 01:25:00,
2013-03-18 21:26:00,59.7,58.0,29.87,ENE,71,0.0,0.0,94,0.00,,---,0.04,VWS V14.00,2013-03-19 01:26:00,
2013-03-18 21:27:00,59.7,58.0,29.87,ENE,71,0.0,0.0,94,0.00,,---,0.04,VWS V14.00,2013-03-19 01:27:00,
2013-03-18 21:28:00,59.7,58.0,29.87,ENE,71,0.0,0.0,94,0.00,,---,0.04,VWS V14.00,2013-03-19 01:28:00,
2013-03-18 21:29:00,59.7,58.0,29.86,ENE,71,0.0,0.0,94,0.00,,---,0.04,VWS V14.00,2013-03-19 01:29:00,
2013-03-18 21:30:00,59.7,58.0,29.86,ENE,71,0.0,0.0,94,0.00,,---,0.04,VWS V14.00,2013-03-19 01:30:00,
2013-03-18 21:31:00,59.7,58.0,29.86,ENE,71,0.0,0.0,94,0.00,,---,0.04,VWS V14.00,2013-03-19 01:31:00,
2013-03-18 21:32:00,59.7,58.0,29.86,ENE,71,0.0,0.0,94,0.00,,---,0.04,VWS V14.00,2013-03-19 01:32:00,
2013-03-18 21:33:00,59.7,58.0,29.86,ENE,71,0.0,0.0,94,0.00,,---,0.04,VWS V14.00,2013-03-19 01:33:00,
2013-03-18 21:34:00,59.7,58.0,29.86,ENE,71,0.0,0.0,94,0.00,,---,0.04,VWS V14.00,2013-03-19 01:34:00,
2013-03-18 21:35:00,59.7,58.0,29.86,ENE,71,0.0,0.0,94,0.00,,---,0.04,VWS V14.00,2013-03-19 01:35:00,
2013-03-18 21:36:00,59.7,58.0,29.86,ENE,71,0.0,0.0,94,0.00,,---,0.04,VWS V14.00,2013-03-19 01:36:00,
2013-03-18 21:37:00,59.7,58.0,29.86,ENE,71,0.0,0.0,94,0.00,,---,0.04,VWS V14.00,2013-03-19 01:37:00,
2013-03-18 21:38:00,59.7,58.0,29.86,ENE,71,0.0,0.0,94,0.00,,---,0.04,VWS V14.00,2013-03-19 01:38:00,
2013-03-18 21:39:00,59.7,58.0,29.87,ENE,71,0.0,0.0,94,0.00,,---,0.04,VWS V14.00,2013-03-19 01:39:00,
2013-03-18 21:40:00,59.7,58.0,29.86,ENE,71,0.0,0.0,94,0.00,,---,0.04,VWS V14.00,2013-03-19 01:40:00,
2013-03-18 21:41:00,59.7,58.0,29.87,ENE,71,0.0,0.0,94,0.00,,---,0.04,VWS V14.00,2013-03-19 01:41:00,
2013-03-18 21:42:00,59.7,58.0,29.87,ENE,71,0.0,0.0,94,0.00,,---,0.04,VWS V14.00,2013-03-19 01:42:00,
2013-03-18 21:43:00,59.6,57.9,29.87,ENE,71,0.0,0.0,94,0.00,,---,0.04,VWS V14.00,2013-03-19 01:43:00,
2013-03-18 21:44:00,59.7,58.0,29.87,ENE,71,0.0,0.0,94,0.00,,---,0.04,VWS V14.00,2013-03-19 01:44:00,
2013-03-18 21:45:00,59.7,58.0,29.87,ENE,71,0.0,0.0,94,0.00,,---,0.04,VWS V14.00,2013-03-19 01:45:00,
2013-03-18 21:46:00,59.7,58.0,29.87,ENE,71,0.0,0.0,94,0.00,,---,0.04,VWS V14.00,2013-03-19 01:46:00,
2013-03-18 21:47:00,59.7,58.0,29.88,ENE,71,0.0,0.0,94,0.00,,---,0.04,VWS V14.00,2013-03-19 01:47:00,
2013-03-18 21:48:00,59.7,58.0,29.88,ENE,71,0.0,0.0,94,0.00,,---,0.04,VWS V14.00,2013-03-19 01:48:00,
2013-03-18 21:49:00,59.7,58.0,29.86,ENE,71,0.0,0.0,94,0.00,,---,0.04,VWS V14.00,2013-03-19 01:49:00,
2013-03-18 21:50:00,59.7,58.0,29.87,ENE,71,0.0,0.0,94,0.00,,---,0.04,VWS V14.00,2013-03-19 01:50:00,
2013-03-18 21:51:00,59.7,58.0,29.87,ENE,71,0.0,0.0,94,0.00,,---,0.04,VWS V14.00,2013-03-19 01:51:00,
2013-03-18 21:52:00,59.7,58.0,29.87,ENE,71,0.0,0.0,94,0.00,,---,0.04,VWS V14.00,2013-03-19 01:52:00,
2013-03-18 21:53:00,59.7,58.0,29.87,ENE,71,0.0,0.0,94,0.00,,---,0.04,VWS V14.00,2013-03-19 01:53:00,
2013-03-18 21:54:00,59.9,58.5,29.85,ENE,71,0.0,0.0,95,0.00,,---,0.04,VWS V14.00,2013-03-19 01:54:00,
2013-03-18 21:55:00,59.7,58.0,29.86,ENE,71,0.0,0.0,94,0.00,,---,0.04,VWS V14.00,2013-03-19 01:55:00,
2013-03-18 21:57:00,59.8,58.1,29.85,ENE,71,0.0,0.0,94,0.00,,---,0.04,VWS V14.00,2013-03-19 01:57:00,
2013-03-18 21:58:00,59.8,58.1,29.85,ENE,71,0.0,0.0,94,0.00,,---,0.04,VWS V14.00,2013-03-19 01:58:00,
2013-03-18 21:59:00,60.1,58.7,29.85,ENE,71,0.0,1.0,95,0.00,,---,0.04,VWS V14.00,2013-03-19 01:59:00,
2013-03-18 22:00:00,59.9,58.5,29.85,ENE,71,0.0,0.0,95,0.00,,---,0.04,VWS V14.00,2013-03-19 02:00:00,
2013-03-18 22:01:00,59.9,58.5,29.85,ENE,71,0.0,1.0,95,0.00,,---,0.04,VWS V14.00,2013-03-19 02:01:00,
2013-03-18 22:02:00,60.0,58.6,29.85,ENE,71,0.0,0.0,95,0.00,,---,0.04,VWS V14.00,2013-03-19 02:02:00,
2013-03-18 22:03:00,60.0,58.6,29.85,ENE,71,0.0,0.0,95,0.00,,---,0.04,VWS V14.00,2013-03-19 02:03:00,
2013-03-18 22:04:00,60.4,59.0,29.85,ENE,71,0.0,0.0,95,0.00,,---,0.04,VWS V14.00,2013-03-19 02:04:00,
2013-03-18 22:05:00,60.1,58.7,29.85,ENE,71,0.0,1.0,95,0.00,,---,0.04,VWS V14.00,2013-03-19 02:05:00,
2013-03-18 22:06:00,60.2,58.8,29.85,ENE,71,0.0,0.0,95,0.00,,---,0.04,VWS V14.00,2013-03-19 02:06:00,
2013-03-18 22:07:00,60.2,58.8,29.85,ENE,71,0.0,0.0,95,0.00,,---,0.04,VWS V14.00,2013-03-19 02:07:00,
2013-03-18 22:08:00,60.3,58.9,29.85,ENE,71,0.0,0.0,95,0.00,,---,0.04,VWS V14.00,2013-03-19 02:08:00,
2013-03-18 22:09:00,60.8,59.7,29.85,ENE,73,0.0,2.0,96,0.00,,---,0.04,VWS V14.00,2013-03-19 02:09:00,
2013-03-18 22:10:00,60.4,59.0,29.85,ENE,71,0.0,0.0,95,0.00,,---,0.04,VWS V14.00,2013-03-19 02:10:00,
2013-03-18 22:11:00,60.5,59.1,29.85,ENE,71,0.0,0.0,95,0.00,,---,0.04,VWS V14.00,2013-03-19 02:11:00,
2013-03-18 22:12:00,60.5,59.1,29.85,ENE,71,0.0,0.0,95,0.00,,---,0.04,VWS V14.00,2013-03-19 02:12:00,
2013-03-18 22:13:00,60.6,59.5,29.85,ENE,71,0.0,1.0,96,0.00,,---,0.04,VWS V14.00,2013-03-19 02:13:00,
2013-03-18 22:14:00,61.1,60.0,29.85,SSW,194,1.0,3.0,96,0.00,,---,0.04,VWS V14.00,2013-03-19 02:14:00,
2013-03-18 22:15:00,60.8,59.7,29.85,ENE,73,0.0,2.0,96,0.00,,---,0.04,VWS V14.00,2013-03-19 02:15:00,
2013-03-18 22:16:00,60.8,59.7,29.85,ENE,73,0.0,1.0,96,0.00,,---,0.04,VWS V14.00,2013-03-19 02:16:00,
2013-03-18 22:17:00,60.9,59.8,29.85,ENE,73,0.0,1.0,96,0.00,,---,0.04,VWS V14.00,2013-03-19 02:17:00,
2013-03-18 22:18:00,61.0,59.8,29.85,ENE,73,0.0,2.0,96,0.00,,---,0.04,VWS V14.00,2013-03-19 02:18:00,
2013-03-18 22:19:00,61.4,60.2,29.85,SSW,194,0.0,1.0,96,0.00,,---,0.04,VWS V14.00,2013-03-19 02:19:00,
2013-03-18 22:20:00,61.1,60.0,29.85,SSW,194,1.0,3.0,96,0.00,,---,0.04,VWS V14.00,2013-03-19 02:20:00,
2013-03-18 22:21:00,61.2,60.0,29.85,SSW,194,0.0,1.0,96,0.00,,---,0.04,VWS V14.00,2013-03-19 02:21:00,
2013-03-18 22:22:00,61.2,60.0,29.85,SSW,194,0.0,1.0,96,0.00,,---,0.04,VWS V14.00,2013-03-19 02:22:00,
2013-03-18 22:23:00,61.3,60.2,29.85,SSW,194,0.0,1.0,96,0.00,,---,0.04,VWS V14.00,2013-03-19 02:23:00,
2013-03-18 22:24:00,61.6,60.5,29.85,SSW,194,0.0,0.0,96,0.00,,---,0.04,VWS V14.00,2013-03-19 02:24:00,
2013-03-18 22:25:00,61.4,60.2,29.85,SSW,194,0.0,1.0,96,0.00,,---,0.04,VWS V14.00,2013-03-19 02:25:00,
2013-03-18 22:26:00,61.4,60.2,29.85,SSW,194,0.0,1.0,96,0.00,,---,0.04,VWS V14.00,2013-03-19 02:26:00,
2013-03-18 22:27:00,61.5,60.3,29.85,SSW,194,0.0,1.0,96,0.00,,---,0.04,VWS V14.00,2013-03-19 02:27:00,
2013-03-18 22:28:00,61.6,60.5,29.85,SSW,194,0.0,2.0,96,0.00,,---,0.04,VWS V14.00,2013-03-19 02:28:00,
2013-03-18 22:29:00,61.7,60.5,29.85,SSW,194,2.0,2.0,96,0.00,,---,0.04,VWS V14.00,2013-03-19 02:29:00,
2013-03-18 22:30:00,61.6,60.5,29.85,SSW,194,0.0,0.0,96,0.00,,---,0.04,VWS V14.00,2013-03-19 02:30:00,
2013-03-18 22:31:00,61.7,60.5,29.85,SSW,194,0.0,1.0,96,0.00,,---,0.04,VWS V14.00,2013-03-19 02:31:00,
2013-03-18 22:32:00,61.7,60.5,29.85,SSW,194,1.0,2.0,96,0.00,,---,0.04,VWS V14.00,2013-03-19 02:32:00,
2013-03-18 22:33:00,61.7,60.5,29.85,SSW,194,0.0,2.0,96,0.00,,---,0.04,VWS V14.00,2013-03-19 02:33:00,
2013-03-18 22:34:00,61.9,60.8,29.85,SSW,193,1.0,3.0,96,0.00,,---,0.04,VWS V14.00,2013-03-19 02:34:00,
2013-03-18 22:35:00,61.7,60.5,29.85,SSW,194,2.0,2.0,96,0.00,,---,0.04,VWS V14.00,2013-03-19 02:35:00,
2013-03-18 22:36:00,61.8,60.7,29.86,SSW,194,0.0,2.0,96,0.00,,---,0.04,VWS V14.00,2013-03-19 02:36:00,
2013-03-18 22:37:00,61.8,60.7,29.85,SSW,194,0.0,2.0,96,0.00,,---,0.04,VWS V14.00,2013-03-19 02:37:00,
2013-03-18 22:38:00,61.8,60.7,29.86,SSW,194,0.0,1.0,96,0.00,,---,0.04,VWS V14.00,2013-03-19 02:38:00,
2013-03-18 22:39:00,62.0,60.8,29.86,SSW,192,1.0,4.0,96,0.00,,---,0.04,VWS V14.00,2013-03-19 02:39:00,
2013-03-18 22:40:00,61.9,60.8,29.85,SSW,193,1.0,3.0,96,0.00,,---,0.04,VWS V14.00,2013-03-19 02:40:00,
2013-03-18 22:41:00,61.9,60.8,29.86,SSW,193,1.0,2.0,96,0.00,,---,0.04,VWS V14.00,2013-03-19 02:41:00,
2013-03-18 22:42:00,61.9,60.8,29.86,SSW,193,0.0,2.0,96,0.00,,---,0.04,VWS V14.00,2013-03-19 02:42:00,
2013-03-18 22:43:00,62.0,60.8,29.86,South,191,3.0,3.0,96,0.00,,---,0.04,VWS V14.00,2013-03-19 02:43:00,
2013-03-18 22:44:00,62.1,61.0,29.86,South,190,1.0,1.0,96,0.00,,---,0.04,VWS V14.00,2013-03-19 02:44:00,
2013-03-18 22:45:00,62.0,60.8,29.86,SSW,192,0.0,4.0,96,0.00,,---,0.04,VWS V14.00,2013-03-19 02:45:00,
2013-03-18 22:46:00,62.0,60.8,29.86,South,191,2.0,4.0,96,0.00,,---,0.04,VWS V14.00,2013-03-19 02:46:00,
2013-03-18 22:47:00,62.1,61.0,29.86,South,190,1.0,3.0,96,0.00,,---,0.04,VWS V14.00,2013-03-19 02:47:00,
2013-03-18 22:48:00,62.1,61.0,29.86,South,190,0.0,2.0,96,0.00,,---,0.04,VWS V14.00,2013-03-19 02:48:00,
2013-03-18 22:49:00,62.3,61.2,29.86,South,191,1.0,4.0,96,0.00,,---,0.04,VWS V14.00,2013-03-19 02:49:00,
2013-03-18 22:50:00,62.1,61.0,29.86,South,190,0.0,1.0,96,0.00,,---,0.04,VWS V14.00,2013-03-19 02:50:00,
2013-03-18 22:51:00,62.1,61.0,29.86,South,190,2.0,2.0,96,0.00,,---,0.04,VWS V14.00,2013-03-19 02:51:00,
2013-03-18 22:52:00,62.2,61.0,29.85,South,190,0.0,3.0,96,0.00,,---,0.04,VWS V14.00,2013-03-19 02:52:00,
2013-03-18 22:53:00,62.2,61.0,29.86,South,190,1.0,3.0,96,0.00,,---,0.04,VWS V14.00,2013-03-19 02:53:00,
2013-03-18 22:54:00,62.4,61.2,29.86,South,190,1.0,2.0,96,0.00,,---,0.04,VWS V14.00,2013-03-19 02:54:00,
2013-03-18 22:55:00,62.3,61.2,29.86,South,191,1.0,4.0,96,0.00,,---,0.04,VWS V14.00,2013-03-19 02:55:00,
2013-03-18 22:56:00,62.3,61.2,29.86,South,191,1.0,2.0,96,0.00,,---,0.04,VWS V14.00,2013-03-19 02:56:00,
2013-03-18 22:57:00,62.3,61.2,29.86,South,191,0.0,1.0,96,0.00,,---,0.04,VWS V14.00,2013-03-19 02:57:00,
2013-03-18 22:58:00,62.3,61.2,29.86,South,190,3.0,3.0,96,0.00,,---,0.04,VWS V14.00,2013-03-19 02:58:00,
2013-03-18 22:59:00,62.5,61.3,29.86,South,190,0.0,1.0,96,0.00,,---,0.04,VWS V14.00,2013-03-19 02:59:00,
2013-03-18 23:00:00,62.4,61.2,29.86,South,190,0.0,2.0,96,0.00,,---,0.04,VWS V14.00,2013-03-19 03:00:00,
2013-03-18 23:01:00,62.4,61.2,29.86,South,190,0.0,2.0,96,0.00,,---,0.04,VWS V14.00,2013-03-19 03:01:00,
2013-03-18 23:02:00,62.4,61.2,29.86,South,190,0.0,1.0,96,0.00,,---,0.04,VWS V14.00,2013-03-19 03:02:00,
2013-03-18 23:03:00,62.4,61.2,29.86,South,190,0.0,0.0,96,0.00,,---,0.04,VWS V14.00,2013-03-19 03:03:00,
2013-03-18 23:04:00,62.6,61.5,29.86,South,190,0.0,0.0,96,0.00,,---,0.04,VWS V14.00,2013-03-19 03:04:00,
2013-03-18 23:05:00,62.5,61.3,29.86,South,190,0.0,1.0,96,0.00,,---,0.04,VWS V14.00,2013-03-19 03:05:00,
2013-03-18 23:06:00,62.5,61.3,29.86,South,190,0.0,0.0,96,0.00,,---,0.04,VWS V14.00,2013-03-19 03:06:00,
2013-03-18 23:07:00,62.5,61.3,29.86,South,190,0.0,1.0,96,0.00,,---,0.04,VWS V14.00,2013-03-19 03:07:00,
2013-03-18 23:08:00,62.5,61.3,29.86,South,190,0.0,0.0,96,0.00,,---,0.04,VWS V14.00,2013-03-19 03:08:00,
2013-03-18 23:09:00,62.6,61.5,29.87,South,190,0.0,1.0,96,0.00,,---,0.04,VWS V14.00,2013-03-19 03:09:00,
2013-03-18 23:10:00,62.6,61.5,29.86,South,190,0.0,0.0,96,0.00,,---,0.04,VWS V14.00,2013-03-19 03:10:00,
2013-03-18 23:11:00,62.6,61.5,29.87,South,190,0.0,1.0,96,0.00,,---,0.04,VWS V14.00,2013-03-19 03:11:00,
2013-03-18 23:12:00,62.6,61.5,29.87,South,190,0.0,1.0,96,0.00,,---,0.04,VWS V14.00,2013-03-19 03:12:00,
2013-03-18 23:13:00,62.6,61.5,29.87,South,190,0.0,1.0,96,0.00,,---,0.04,VWS V14.00,2013-03-19 03:13:00,
2013-03-18 23:14:00,62.7,61.5,29.87,South,190,0.0,0.0,96,0.00,,---,0.04,VWS V14.00,2013-03-19 03:14:00,
2013-03-18 23:15:00,62.6,61.5,29.87,South,190,0.0,1.0,96,0.00,,---,0.04,VWS V14.00,2013-03-19 03:15:00,
2013-03-18 23:16:00,62.6,61.5,29.87,South,190,0.0,1.0,96,0.00,,---,0.04,VWS V14.00,2013-03-19 03:16:00,
2013-03-18 23:17:00,62.6,61.5,29.87,South,190,0.0,1.0,96,0.00,,---,0.04,VWS V14.00,2013-03-19 03:17:00,
2013-03-18 23:18:00,62.7,61.5,29.86,South,190,0.0,2.0,96,0.00,,---,0.04,VWS V14.00,2013-03-19 03:18:00,
2013-03-18 23:19:00,62.8,61.7,29.86,South,191,0.0,2.0,96,0.00,,---,0.04,VWS V14.00,2013-03-19 03:19:00,
2013-03-18 23:20:00,62.7,61.5,29.87,South,190,0.0,0.0,96,0.00,,---,0.04,VWS V14.00,2013-03-19 03:20:00,
2013-03-18 23:21:00,62.7,61.5,29.87,South,190,0.0,1.0,96,0.00,,---,0.04,VWS V14.00,2013-03-19 03:21:00,
2013-03-18 23:22:00,62.7,61.5,29.87,South,190,0.0,1.0,96,0.00,,---,0.04,VWS V14.00,2013-03-19 03:22:00,
2013-03-18 23:23:00,62.7,61.5,29.86,South,190,0.0,1.0,96,0.00,,---,0.04,VWS V14.00,2013-03-19 03:23:00,
2013-03-18 23:24:00,62.9,61.8,29.86,South,191,0.0,1.0,96,0.00,,---,0.04,VWS V14.00,2013-03-19 03:24:00,
2013-03-18 23:25:00,62.8,61.7,29.86,South,191,0.0,2.0,96,0.00,,---,0.04,VWS V14.00,2013-03-19 03:25:00,
2013-03-18 23:26:00,62.8,61.7,29.86,South,191,0.0,1.0,96,0.00,,---,0.04,VWS V14.00,2013-03-19 03:26:00,
2013-03-18 23:27:00,62.8,61.7,29.86,South,191,1.0,1.0,96,0.00,,---,0.04,VWS V14.00,2013-03-19 03:27:00,
2013-03-18 23:28:00,62.8,61.7,29.86,South,191,0.0,2.0,96,0.00,,---,0.04,VWS V14.00,2013-03-19 03:28:00,
2013-03-18 23:29:00,63.0,61.8,29.86,SSW,194,0.0,0.0,96,0.00,,---,0.04,VWS V14.00,2013-03-19 03:29:00,
2013-03-18 23:30:00,62.9,61.8,29.86,SSW,194,0.0,1.0,96,0.00,,---,0.04,VWS V14.00,2013-03-19 03:30:00,
2013-03-18 23:31:00,62.9,61.8,29.86,SSW,194,0.0,1.0,96,0.00,,---,0.04,VWS V14.00,2013-03-19 03:31:00,
2013-03-18 23:32:00,62.9,61.8,29.86,SSW,194,0.0,0.0,96,0.00,,---,0.04,VWS V14.00,2013-03-19 03:32:00,
2013-03-18 23:33:00,62.9,61.8,29.86,SSW,194,0.0,0.0,96,0.00,,---,0.04,VWS V14.00,2013-03-19 03:33:00,
2013-03-18 23:34:00,63.1,61.9,29.87,SSW,194,0.0,0.0,96,0.00,,---,0.04,VWS V14.00,2013-03-19 03:34:00,
2013-03-18 23:35:00,63.0,61.8,29.86,SSW,194,0.0,0.0,96,0.00,,---,0.04,VWS V14.00,2013-03-19 03:35:00,
2013-03-18 23:36:00,63.0,61.8,29.87,SSW,194,0.0,1.0,96,0.00,,---,0.04,VWS V14.00,2013-03-19 03:36:00,
2013-03-18 23:37:00,63.0,61.8,29.87,SSW,194,1.0,2.0,96,0.00,,---,0.04,VWS V14.00,2013-03-19 03:37:00,
2013-03-18 23:38:00,63.1,61.9,29.87,SSW,194,0.0,1.0,96,0.00,,---,0.04,VWS V14.00,2013-03-19 03:38:00,
2013-03-18 23:39:00,63.3,62.1,29.88,SSW,196,1.0,3.0,96,0.03,,---,0.07,VWS V14.00,2013-03-19 03:39:00,
2013-03-18 23:40:00,63.1,61.9,29.87,SSW,194,0.0,0.0,96,0.00,,---,0.04,VWS V14.00,2013-03-19 03:40:00,
2013-03-18 23:41:00,63.2,62.0,29.87,SSW,194,0.0,0.0,96,0.00,,---,0.04,VWS V14.00,2013-03-19 03:41:00,
2013-03-18 23:42:00,63.2,62.0,29.88,SSW,194,0.0,2.0,96,0.00,,---,0.04,VWS V14.00,2013-03-19 03:42:00,
2013-03-18 23:43:00,63.2,62.0,29.88,SSW,194,0.0,1.0,96,0.00,,---,0.04,VWS V14.00,2013-03-19 03:43:00,
2013-03-18 23:44:00,63.8,62.6,29.92,NNW,336,2.0,5.0,96,0.13,,---,0.17,VWS V14.00,2013-03-19 03:44:00,
2013-03-18 23:45:00,63.3,62.1,29.88,SSW,196,0.0,3.0,96,0.03,,---,0.07,VWS V14.00,2013-03-19 03:45:00,
2013-03-18 23:46:00,63.4,62.2,29.89,West,280,1.0,1.0,96,0.07,,---,0.11,VWS V14.00,2013-03-19 03:46:00,
2013-03-18 23:47:00,63.4,62.2,29.90,NW,312,1.0,5.0,96,0.11,,---,0.15,VWS V14.00,2013-03-19 03:47:00,
2013-03-18 23:48:00,63.6,62.4,29.90,NNW,336,2.0,6.0,96,0.12,,---,0.16,VWS V14.00,2013-03-19 03:48:00,
2013-03-18 23:49:00,63.6,62.4,29.93,NNW,342,2.0,14.0,96,0.23,,---,0.27,VWS V14.00,2013-03-19 03:49:00,
2013-03-18 23:50:00,63.8,62.6,29.92,NNW,336,2.0,5.0,96,0.13,,---,0.17,VWS V14.00,2013-03-19 03:50:00,
2013-03-18 23:51:00,63.9,62.7,29.92,NNW,334,2.0,6.0,96,0.15,,---,0.19,VWS V14.00,2013-03-19 03:51:00,
2013-03-18 23:52:00,63.9,62.7,29.93,WNW,294,2.0,11.0,96,0.16,,---,0.20,VWS V14.00,2013-03-19 03:52:00,
2013-03-18 23:53:00,63.9,62.7,29.93,WNW,302,8.0,13.0,96,0.17,,---,0.21,VWS V14.00,2013-03-19 03:53:00,
2013-03-18 23:54:00,62.2,60.2,29.93,North,355,5.0,6.0,93,0.47,,---,0.51,VWS V14.00,2013-03-19 03:54:00,
2013-03-18 23:55:00,63.6,62.4,29.93,NW,306,2.0,15.0,96,0.23,,---,0.27,VWS V14.00,2013-03-19 03:55:00,
2013-03-18 23:56:00,63.2,61.8,29.94,NW,321,0.0,15.0,95,0.29,,---,0.33,VWS V14.00,2013-03-19 03:56:00,
2013-03-18 23:58:00,62.7,61.0,29.94,North,5,4.0,11.0,94,0.37,,---,0.41,VWS V14.00,2013-03-19 03:58:00,
2013-03-18 23:59:00,60.9,58.9,29.92,North,355,0.0,9.0,93,0.63,,---,0.16,VWS V14.00,2013-03-19 03:59:00,